| time (UTC) | temp C | wind direction | speed KPH | gust KPH | rain 1hr cm | rain 24hr cm | rain mn cm | humidity % | barometer mb |
| 20260502161241 | 11 | 105 | 16.1 | 19.3 | 0.00 | 1.04 | 1.04 | 91 | 1012.7 |
| 20260502161111 | 11 | 111 | 16.1 | 20.9 | 0.00 | 1.04 | 1.04 | 91 | 1012.7 |
| 20260502161011 | 11 | 115 | 19.3 | 20.9 | 0.00 | 1.04 | 1.04 | 91 | 1012.7 |
| 20260502160911 | 11 | 122 | 19.3 | 25.7 | 0.00 | 1.04 | 1.04 | 91 | 1012.8 |
| 20260502160811 | 11 | 120 | 16.1 | 22.5 | 0.00 | 1.04 | 1.04 | 91 | 1012.8 |
| 20260502160711 | 11 | 112 | 16.1 | 22.5 | 0.00 | 1.04 | 1.04 | 91 | 1012.8 |
| 20260502160541 | 11 | 126 | 19.3 | 22.5 | 0.00 | 1.04 | 1.04 | 91 | 1012.8 |
| 20260502160441 | 11 | 123 | 14.5 | 22.5 | 0.00 | 1.04 | 1.04 | 91 | 1012.8 |
| 20260502160311 | 11 | 121 | 16.1 | 19.3 | 0.00 | 1.04 | 1.04 | 91 | 1012.8 |
| 20260502160211 | 11 | 121 | 19.3 | 22.5 | 0.00 | 1.04 | 1.04 | 91 | 1012.7 |
| 20260502160111 | 11 | 123 | 19.3 | 20.9 | 0.00 | 1.04 | 1.04 | 91 | 1012.8 |
| 20260502152310 | 11 | 106 | 19.3 | 22.5 | 0.03 | 1.04 | 1.04 | 90 | 1013.1 |
| 20260502152210 | 11 | 106 | 14.5 | 22.5 | 0.03 | 1.04 | 1.04 | 90 | 1013.2 |
| 20260502152110 | 11 | 105 | 12.9 | 19.3 | 0.03 | 1.04 | 1.04 | 90 | 1013.1 |
| 20260502152010 | 11 | 121 | 12.9 | 19.3 | 0.03 | 1.04 | 1.04 | 90 | 1013.1 |
| 20260502151910 | 11 | 106 | 19.3 | 22.5 | 0.03 | 1.04 | 1.04 | 90 | 1013.1 |
| 20260502151810 | 11 | 116 | 19.3 | 24.1 | 0.03 | 1.04 | 1.04 | 90 | 1013.1 |
| 20260502151710 | 11 | 125 | 16.1 | 25.7 | 0.03 | 1.04 | 1.04 | 90 | 1013.2 |
| 20260502151610 | 11 | 105 | 19.3 | 24.1 | 0.03 | 1.04 | 1.04 | 90 | 1013.2 |
| 20260502151509 | 11 | 105 | 16.1 | 24.1 | 0.03 | 1.04 | 1.04 | 90 | 1013.2 |
| 20260502151409 | 11 | 117 | 19.3 | 24.1 | 0.03 | 1.04 | 1.04 | 90 | 1013.1 |
| 20260502151309 | 11 | 117 | 20.9 | 22.5 | 0.03 | 1.04 | 1.04 | 90 | 1013.1 |
| 20260502151209 | 11 | 114 | 19.3 | 25.7 | 0.03 | 1.04 | 1.04 | 90 | 1013.1 |
| 20260502151109 | 11 | 117 | 20.9 | 25.7 | 0.03 | 1.04 | 1.04 | 90 | 1013.1 |
| 20260502151009 | 11 | 104 | 22.5 | 29.0 | 0.05 | 1.04 | 1.04 | 90 | 1013.1 |
| 20260502150909 | 11 | 109 | 20.9 | 27.4 | 0.05 | 1.04 | 1.04 | 90 | 1013.1 |
| 20260502150809 | 11 | 108 | 20.9 | 24.1 | 0.08 | 1.04 | 1.04 | 90 | 1013.1 |
| 20260502150709 | 11 | 106 | 20.9 | 27.4 | 0.08 | 1.04 | 1.04 | 90 | 1013.1 |
| 20260502150609 | 11 | 108 | 22.5 | 25.7 | 0.08 | 1.04 | 1.04 | 90 | 1013.1 |
| 20260502150509 | 11 | 108 | 20.9 | 29.0 | 0.10 | 1.04 | 1.04 | 90 | 1013.0 |
| 20260502150409 | 11 | 99 | 20.9 | 24.1 | 0.10 | 1.04 | 1.04 | 91 | 1013.0 |
| 20260502150309 | 11 | 115 | 19.3 | 27.4 | 0.10 | 1.04 | 1.04 | 91 | 1013.0 |
| 20260502150209 | 11 | 115 | 19.3 | 22.5 | 0.10 | 1.04 | 1.04 | 90 | 1013.0 |
| 20260502150109 | 11 | 96 | 24.1 | 27.4 | 0.13 | 1.04 | 1.04 | 90 | 1013.0 |
| 20260502130700 | 11 | 133 | 16.1 | 25.7 | 0.36 | 0.38 | 0.38 | 89 | 1015.6 |
| 20260502130600 | 11 | 143 | 12.9 | 25.7 | 0.36 | 0.38 | 0.38 | 89 | 1015.7 |
| 20260502130500 | 11 | 148 | 14.5 | 19.3 | 0.33 | 0.36 | 0.36 | 88 | 1015.7 |
| 20260502130400 | 11 | 152 | 19.3 | 24.1 | 0.33 | 0.36 | 0.36 | 88 | 1015.8 |
| 20260502130300 | 11 | 163 | 20.9 | 27.4 | 0.30 | 0.33 | 0.33 | 88 | 1015.8 |
| 20260502130200 | 11 | 158 | 16.1 | 29.0 | 0.30 | 0.33 | 0.33 | 88 | 1015.9 |
| 20260502123758 | 11 | 85 | 9.7 | 11.3 | 0.05 | 0.08 | 0.08 | 88 | 1015.1 |
| 20260502123658 | 11 | 85 | 8.0 | 9.7 | 0.05 | 0.08 | 0.08 | 88 | 1015.1 |
| 20260502123558 | 11 | 84 | 9.7 | 12.9 | 0.05 | 0.08 | 0.08 | 88 | 1015.2 |
| 20260502123458 | 11 | 83 | 9.7 | 11.3 | 0.05 | 0.08 | 0.08 | 88 | 1015.2 |
| 20260502123357 | 11 | 86 | 9.7 | 12.9 | 0.05 | 0.08 | 0.08 | 88 | 1015.2 |
| 20260502123257 | 11 | 88 | 9.7 | 11.3 | 0.05 | 0.08 | 0.08 | 88 | 1015.3 |
| 20260502123157 | 11 | 87 | 11.3 | 14.5 | 0.05 | 0.08 | 0.08 | 88 | 1015.3 |
| 20260502123057 | 11 | 107 | 11.3 | 14.5 | 0.05 | 0.08 | 0.08 | 88 | 1015.4 |
| 20260502122957 | 11 | 111 | 12.9 | 16.1 | 0.05 | 0.08 | 0.08 | 88 | 1015.4 |
| 20260502122857 | 11 | 125 | 12.9 | 19.3 | 0.05 | 0.08 | 0.08 | 88 | 1015.4 |
| 20260502122757 | 11 | 124 | 9.7 | 16.1 | 0.05 | 0.08 | 0.08 | 89 | 1015.4 |
| 20260502122657 | 11 | 127 | 9.7 | 11.3 | 0.05 | 0.08 | 0.08 | 88 | 1015.4 |
| 20260502122557 | 11 | 126 | 9.7 | 12.9 | 0.05 | 0.08 | 0.08 | 88 | 1015.4 |
| 20260502122457 | 11 | 125 | 8.0 | 12.9 | 0.05 | 0.08 | 0.08 | 88 | 1015.5 |
| 20260502122357 | 11 | 109 | 9.7 | 11.3 | 0.05 | 0.08 | 0.08 | 88 | 1015.5 |
| 20260502122257 | 11 | 116 | 11.3 | 14.5 | 0.05 | 0.08 | 0.08 | 88 | 1015.4 |
| 20260502122157 | 11 | 116 | 9.7 | 14.5 | 0.03 | 0.05 | 0.05 | 88 | 1015.4 |
| 20260502122057 | 11 | 106 | 9.7 | 12.9 | 0.03 | 0.05 | 0.05 | 88 | 1015.4 |
| 20260502121957 | 11 | 105 | 11.3 | 12.9 | 0.03 | 0.05 | 0.05 | 88 | 1015.4 |
| 20260502121857 | 11 | 99 | 11.3 | 14.5 | 0.03 | 0.05 | 0.05 | 88 | 1015.4 |
| 20260502121756 | 11 | 110 | 11.3 | 12.9 | 0.03 | 0.05 | 0.05 | 88 | 1015.4 |
| 20260502121656 | 11 | 111 | 9.7 | 12.9 | 0.03 | 0.05 | 0.05 | 88 | 1015.5 |
| 20260502121556 | 11 | 99 | 11.3 | 11.3 | 0.03 | 0.05 | 0.05 | 88 | 1015.5 |
| 20260502121456 | 11 | 113 | 9.7 | 12.9 | 0.03 | 0.05 | 0.05 | 88 | 1015.5 |
| 20260502121356 | 11 | 106 | 11.3 | 11.3 | 0.03 | 0.05 | 0.05 | 88 | 1015.5 |
| 20260502121256 | 11 | 103 | 12.9 | 16.1 | 0.03 | 0.05 | 0.05 | 88 | 1015.5 |
| 20260502121156 | 11 | 106 | 12.9 | 16.1 | 0.03 | 0.05 | 0.05 | 88 | 1015.6 |
| 20260502121056 | 11 | 107 | 11.3 | 16.1 | 0.00 | 0.03 | 0.03 | 88 | 1015.6 |
| 20260502120956 | 11 | 105 | 11.3 | 16.1 | 0.00 | 0.03 | 0.03 | 88 | 1015.6 |
| 20260502120856 | 11 | 104 | 11.3 | 16.1 | 0.00 | 0.03 | 0.03 | 88 | 1015.7 |
| 20260502120756 | 11 | 105 | 12.9 | 14.5 | 0.00 | 0.03 | 0.03 | 88 | 1015.7 |
| 20260502120656 | 11 | 106 | 14.5 | 19.3 | 0.00 | 0.03 | 0.03 | 88 | 1015.7 |
| 20260502120556 | 11 | 116 | 12.9 | 16.1 | 0.00 | 0.03 | 0.03 | 88 | 1015.7 |
| 20260502120455 | 11 | 118 | 11.3 | 14.5 | 0.00 | 0.03 | 0.03 | 88 | 1015.8 |
| 20260502120355 | 11 | 112 | 12.9 | 14.5 | 0.00 | 0.03 | 0.03 | 88 | 1015.8 |
| 20260502120255 | 11 | 119 | 12.9 | 16.1 | 0.00 | 0.03 | 0.03 | 88 | 1015.8 |
| 20260502120155 | 11 | 109 | 12.9 | 14.5 | 0.00 | 0.03 | 0.03 | 88 | 1015.8 |
| 20260502115855 | 11 | 123 | 12.9 | 19.3 | 0.00 | 0.03 | 0.03 | 88 | 1015.8 |
| 20260502115755 | 11 | 108 | 14.5 | 19.3 | 0.00 | 0.03 | 0.03 | 88 | 1015.8 |
| 20260502115655 | 11 | 108 | 14.5 | 20.9 | 0.00 | 0.03 | 0.03 | 88 | 1015.8 |
| 20260502115555 | 11 | 109 | 14.5 | 19.3 | 0.00 | 0.03 | 0.03 | 88 | 1015.8 |
| 20260502115455 | 11 | 103 | 12.9 | 19.3 | 0.00 | 0.03 | 0.03 | 88 | 1015.8 |
| 20260502115355 | 11 | 110 | 16.1 | 19.3 | 0.00 | 0.03 | 0.03 | 88 | 1015.9 |
| 20260502115254 | 11 | 120 | 14.5 | 19.3 | 0.00 | 0.03 | 0.03 | 88 | 1015.9 |
| 20260502115154 | 11 | 122 | 14.5 | 19.3 | 0.00 | 0.03 | 0.03 | 88 | 1015.9 |
| 20260502115054 | 11 | 124 | 12.9 | 19.3 | 0.00 | 0.03 | 0.03 | 88 | 1015.9 |
| 20260502114954 | 11 | 120 | 14.5 | 19.3 | 0.00 | 0.03 | 0.03 | 87 | 1015.9 |
| 20260502114854 | 11 | 117 | 14.5 | 19.3 | 0.00 | 0.03 | 0.03 | 87 | 1016.0 |
| 20260502114754 | 11 | 114 | 12.9 | 19.3 | 0.00 | 0.03 | 0.03 | 87 | 1016.0 |
| 20260502114654 | 11 | 113 | 14.5 | 19.3 | 0.00 | 0.03 | 0.03 | 87 | 1016.0 |
| 20260502114554 | 11 | 115 | 16.1 | 19.3 | 0.00 | 0.03 | 0.03 | 87 | 1016.0 |
| 20260502114454 | 11 | 104 | 12.9 | 20.9 | 0.00 | 0.03 | 0.03 | 87 | 1016.0 |
| 20260502114354 | 11 | 123 | 16.1 | 19.3 | 0.00 | 0.03 | 0.03 | 87 | 1016.0 |
| 20260502114254 | 11 | 120 | 16.1 | 19.3 | 0.00 | 0.03 | 0.03 | 87 | 1016.1 |
| 20260502114154 | 11 | 121 | 14.5 | 19.3 | 0.00 | 0.03 | 0.03 | 87 | 1016.1 |
| 20260502114053 | 11 | 118 | 14.5 | 16.1 | 0.00 | 0.03 | 0.03 | 87 | 1016.1 |
| 20260502113953 | 11 | 121 | 16.1 | 19.3 | 0.00 | 0.03 | 0.03 | 86 | 1016.1 |
| 20260502113853 | 11 | 116 | 16.1 | 20.9 | 0.00 | 0.03 | 0.03 | 86 | 1016.1 |
| 20260502113753 | 11 | 119 | 16.1 | 20.9 | 0.00 | 0.03 | 0.03 | 86 | 1016.1 |
| 20260502113653 | 11 | 116 | 14.5 | 20.9 | 0.00 | 0.03 | 0.03 | 86 | 1016.1 |
| 20260502113553 | 11 | 126 | 14.5 | 19.3 | 0.00 | 0.03 | 0.03 | 86 | 1016.2 |
| 20260502113423 | 12 | 121 | 16.1 | 20.9 | 0.00 | 0.03 | 0.03 | 86 | 1016.1 |
| 20260502113323 | 12 | 125 | 12.9 | 20.9 | 0.00 | 0.03 | 0.03 | 86 | 1016.1 |
| 20260502113223 | 12 | 107 | 14.5 | 19.3 | 0.00 | 0.03 | 0.03 | 85 | 1016.1 |
| 20260502113123 | 12 | 104 | 14.5 | 19.3 | 0.00 | 0.03 | 0.03 | 85 | 1016.1 |
| 20260502113023 | 12 | 117 | 12.9 | 19.3 | 0.00 | 0.03 | 0.03 | 85 | 1016.1 |
| 20260502112923 | 12 | 111 | 12.9 | 16.1 | 0.00 | 0.03 | 0.03 | 85 | 1016.1 |
| 20260502112823 | 12 | 107 | 14.5 | 19.3 | 0.00 | 0.03 | 0.03 | 85 | 1016.2 |
| 20260502112723 | 12 | 122 | 14.5 | 19.3 | 0.00 | 0.03 | 0.03 | 85 | 1016.1 |
| 20260502112623 | 12 | 120 | 14.5 | 19.3 | 0.00 | 0.03 | 0.03 | 85 | 1016.2 |
| 20260502112523 | 12 | 115 | 12.9 | 19.3 | 0.00 | 0.03 | 0.03 | 85 | 1016.2 |
| 20260502112422 | 12 | 112 | 11.3 | 19.3 | 0.00 | 0.03 | 0.03 | 85 | 1016.2 |
| 20260502112322 | 12 | 113 | 12.9 | 16.1 | 0.00 | 0.03 | 0.03 | 85 | 1016.2 |
| 20260502112222 | 12 | 97 | 12.9 | 16.1 | 0.00 | 0.03 | 0.03 | 85 | 1016.2 |
| 20260502112122 | 12 | 83 | 14.5 | 19.3 | 0.00 | 0.03 | 0.03 | 84 | 1016.2 |
| 20260502112022 | 12 | 90 | 12.9 | 19.3 | 0.00 | 0.03 | 0.03 | 85 | 1016.2 |
| 20260502111922 | 12 | 95 | 12.9 | 19.3 | 0.00 | 0.03 | 0.03 | 84 | 1016.2 |
| 20260502111822 | 12 | 84 | 14.5 | 19.3 | 0.00 | 0.03 | 0.03 | 84 | 1016.2 |
| 20260502111722 | 12 | 82 | 14.5 | 19.3 | 0.00 | 0.03 | 0.03 | 85 | 1016.2 |
| 20260502111622 | 12 | 93 | 14.5 | 19.3 | 0.00 | 0.03 | 0.03 | 84 | 1016.2 |
| 20260502111522 | 12 | 83 | 14.5 | 19.3 | 0.00 | 0.03 | 0.03 | 85 | 1016.2 |
| 20260502111422 | 12 | 89 | 12.9 | 16.1 | 0.00 | 0.03 | 0.03 | 84 | 1016.3 |
| 20260502111322 | 12 | 89 | 12.9 | 19.3 | 0.00 | 0.03 | 0.03 | 84 | 1016.3 |
| 20260502111222 | 12 | 93 | 12.9 | 16.1 | 0.00 | 0.03 | 0.03 | 84 | 1016.4 |
| 20260502111121 | 12 | 103 | 14.5 | 19.3 | 0.00 | 0.03 | 0.03 | 84 | 1016.4 |
| 20260502111021 | 12 | 109 | 12.9 | 19.3 | 0.00 | 0.03 | 0.03 | 84 | 1016.5 |
| 20260502110921 | 12 | 109 | 14.5 | 19.3 | 0.00 | 0.03 | 0.03 | 84 | 1016.5 |
| 20260502110821 | 12 | 115 | 16.1 | 20.9 | 0.00 | 0.03 | 0.03 | 84 | 1016.5 |
| 20260502110721 | 12 | 127 | 16.1 | 20.9 | 0.00 | 0.03 | 0.03 | 84 | 1016.5 |
| 20260502110621 | 12 | 117 | 14.5 | 20.9 | 0.00 | 0.03 | 0.03 | 84 | 1016.5 |
| 20260502110521 | 12 | 124 | 14.5 | 19.3 | 0.00 | 0.03 | 0.03 | 84 | 1016.5 |
| 20260502110421 | 12 | 123 | 14.5 | 19.3 | 0.00 | 0.03 | 0.03 | 84 | 1016.5 |
| 20260502110321 | 12 | 118 | 14.5 | 19.3 | 0.00 | 0.03 | 0.03 | 84 | 1016.5 |
| 20260502110221 | 12 | 119 | 12.9 | 19.3 | 0.00 | 0.03 | 0.03 | 84 | 1016.5 |
| 20260502110121 | 12 | 100 | 12.9 | 19.3 | 0.00 | 0.03 | 0.03 | 84 | 1016.5 |
| 20260502110021 | 12 | 120 | 12.9 | 14.5 | 0.00 | 0.03 | 0.03 | 84 | 1016.6 |
| 20260502105920 | 12 | 118 | 12.9 | 19.3 | 0.00 | 0.03 | 0.03 | 85 | 1016.5 |
| 20260502105820 | 12 | 113 | 14.5 | 19.3 | 0.00 | 0.03 | 0.03 | 84 | 1016.6 |
| 20260502105720 | 12 | 107 | 14.5 | 19.3 | 0.00 | 0.03 | 0.03 | 85 | 1016.5 |
| 20260502105620 | 12 | 108 | 12.9 | 16.1 | 0.00 | 0.03 | 0.03 | 85 | 1016.5 |
| 20260502105520 | 12 | 98 | 12.9 | 19.3 | 0.00 | 0.03 | 0.03 | 85 | 1016.5 |
| 20260502105420 | 12 | 107 | 12.9 | 16.1 | 0.00 | 0.03 | 0.03 | 85 | 1016.5 |
| 20260502105320 | 12 | 125 | 14.5 | 19.3 | 0.00 | 0.03 | 0.03 | 85 | 1016.6 |
| 20260502105220 | 12 | 98 | 12.9 | 19.3 | 0.00 | 0.03 | 0.03 | 86 | 1016.6 |
| 20260502105120 | 12 | 109 | 12.9 | 16.1 | 0.00 | 0.03 | 0.03 | 86 | 1016.6 |
| 20260502104950 | 12 | 122 | 14.5 | 19.3 | 0.00 | 0.03 | 0.03 | 85 | 1016.6 |
| 20260502104850 | 12 | 114 | 16.1 | 20.9 | 0.00 | 0.03 | 0.03 | 85 | 1016.6 |
| 20260502104750 | 12 | 104 | 14.5 | 20.9 | 0.00 | 0.03 | 0.03 | 86 | 1016.6 |
| 20260502104650 | 12 | 114 | 16.1 | 19.3 | 0.00 | 0.03 | 0.03 | 85 | 1016.7 |
| 20260502104550 | 12 | 120 | 19.3 | 20.9 | 0.00 | 0.03 | 0.03 | 85 | 1016.7 |
| 20260502104450 | 12 | 105 | 16.1 | 20.9 | 0.00 | 0.03 | 0.03 | 85 | 1016.7 |
| 20260502104349 | 12 | 121 | 14.5 | 20.9 | 0.00 | 0.03 | 0.03 | 86 | 1016.7 |
| 20260502104249 | 12 | 124 | 14.5 | 20.9 | 0.00 | 0.03 | 0.03 | 86 | 1016.8 |
| 20260502104149 | 12 | 112 | 14.5 | 20.9 | 0.00 | 0.03 | 0.03 | 86 | 1016.8 |
| 20260502104049 | 12 | 115 | 12.9 | 16.1 | 0.00 | 0.03 | 0.03 | 86 | 1016.7 |
| 20260502103949 | 12 | 127 | 16.1 | 19.3 | 0.00 | 0.03 | 0.03 | 86 | 1016.8 |
| 20260502103849 | 12 | 121 | 14.5 | 19.3 | 0.00 | 0.03 | 0.03 | 86 | 1016.7 |
| 20260502103749 | 12 | 121 | 12.9 | 19.3 | 0.00 | 0.03 | 0.03 | 86 | 1016.7 |
| 20260502103649 | 12 | 121 | 11.3 | 19.3 | 0.00 | 0.03 | 0.03 | 87 | 1016.8 |
| 20260502103549 | 12 | 124 | 12.9 | 14.5 | 0.00 | 0.03 | 0.03 | 87 | 1016.8 |
| 20260502103449 | 12 | 112 | 12.9 | 19.3 | 0.00 | 0.03 | 0.03 | 86 | 1016.8 |
| 20260502103319 | 12 | 99 | 12.9 | 19.3 | 0.00 | 0.03 | 0.03 | 86 | 1016.8 |
| 20260502103219 | 12 | 113 | 14.5 | 19.3 | 0.00 | 0.03 | 0.03 | 86 | 1016.8 |
| 20260502103119 | 12 | 111 | 12.9 | 19.3 | 0.00 | 0.03 | 0.03 | 87 | 1016.8 |
| 20260502103019 | 12 | 119 | 11.3 | 19.3 | 0.00 | 0.03 | 0.03 | 87 | 1016.8 |
| 20260502102919 | 12 | 108 | 11.3 | 16.1 | 0.00 | 0.03 | 0.03 | 87 | 1016.8 |
| 20260502102819 | 12 | 103 | 11.3 | 16.1 | 0.00 | 0.03 | 0.03 | 87 | 1016.8 |
| 20260502102718 | 12 | 101 | 11.3 | 14.5 | 0.00 | 0.03 | 0.03 | 88 | 1016.8 |
| 20260502102618 | 12 | 92 | 11.3 | 11.3 | 0.00 | 0.03 | 0.03 | 88 | 1016.8 |
| 20260502102518 | 12 | 94 | 11.3 | 14.5 | 0.00 | 0.03 | 0.03 | 88 | 1016.8 |
| 20260502102418 | 12 | 90 | 11.3 | 14.5 | 0.00 | 0.03 | 0.03 | 88 | 1016.8 |
| 20260502102318 | 12 | 113 | 11.3 | 11.3 | 0.00 | 0.03 | 0.03 | 88 | 1016.8 |
| 20260502102218 | 12 | 127 | 12.9 | 19.3 | 0.00 | 0.03 | 0.03 | 88 | 1016.9 |
| 20260502102048 | 12 | 105 | 14.5 | 16.1 | 0.00 | 0.03 | 0.03 | 87 | 1016.9 |
| 20260502101948 | 12 | 119 | 12.9 | 19.3 | 0.00 | 0.03 | 0.03 | 88 | 1016.9 |
| 20260502101848 | 12 | 106 | 12.9 | 14.5 | 0.00 | 0.03 | 0.03 | 88 | 1016.9 |
| 20260502101748 | 12 | 121 | 11.3 | 19.3 | 0.00 | 0.03 | 0.03 | 88 | 1016.9 |
| 20260502101648 | 11 | 112 | 11.3 | 14.5 | 0.00 | 0.03 | 0.03 | 88 | 1016.9 |
| 20260502101548 | 11 | 103 | 12.9 | 14.5 | 0.00 | 0.03 | 0.03 | 88 | 1016.9 |
| 20260502101448 | 11 | 102 | 14.5 | 16.1 | 0.00 | 0.03 | 0.03 | 88 | 1016.9 |
| 20260502101348 | 11 | 101 | 12.9 | 19.3 | 0.00 | 0.03 | 0.03 | 88 | 1016.9 |
| 20260502101247 | 11 | 96 | 11.3 | 16.1 | 0.00 | 0.03 | 0.03 | 88 | 1016.9 |
| 20260502101147 | 11 | 98 | 12.9 | 19.3 | 0.00 | 0.03 | 0.03 | 88 | 1017.0 |
| 20260502101047 | 11 | 107 | 14.5 | 20.9 | 0.00 | 0.03 | 0.03 | 88 | 1017.0 |
| 20260502100947 | 11 | 119 | 14.5 | 20.9 | 0.00 | 0.03 | 0.03 | 88 | 1016.9 |
| 20260502100847 | 11 | 120 | 11.3 | 14.5 | 0.00 | 0.03 | 0.03 | 88 | 1017.0 |
| 20260502100747 | 11 | 107 | 14.5 | 16.1 | 0.00 | 0.03 | 0.03 | 88 | 1017.0 |
| 20260502100647 | 11 | 94 | 14.5 | 19.3 | 0.00 | 0.03 | 0.03 | 89 | 1017.0 |
| 20260502100547 | 11 | 101 | 11.3 | 19.3 | 0.00 | 0.03 | 0.03 | 89 | 1017.1 |
| 20260502100447 | 11 | 118 | 11.3 | 16.1 | 0.00 | 0.03 | 0.03 | 89 | 1017.1 |
| 20260502100347 | 11 | 116 | 12.9 | 14.5 | 0.00 | 0.03 | 0.03 | 88 | 1017.1 |
| 20260502100247 | 11 | 108 | 14.5 | 19.3 | 0.00 | 0.03 | 0.03 | 89 | 1017.1 |
| 20260502100147 | 11 | 91 | 11.3 | 19.3 | 0.00 | 0.03 | 0.03 | 89 | 1017.1 |
| 20260502091443 | 11 | 118 | 11.3 | 19.3 | 0.00 | 0.03 | 0.03 | 90 | 1017.6 |
| 20260502091343 | 11 | 120 | 12.9 | 16.1 | 0.00 | 0.03 | 0.03 | 90 | 1017.7 |
| 20260502091243 | 11 | 115 | 12.9 | 16.1 | 0.00 | 0.03 | 0.03 | 90 | 1017.7 |
| 20260502091143 | 11 | 101 | 12.9 | 19.3 | 0.00 | 0.03 | 0.03 | 91 | 1017.7 |
| 20260502091043 | 11 | 110 | 11.3 | 19.3 | 0.00 | 0.03 | 0.03 | 91 | 1017.7 |
| 20260502090943 | 11 | 121 | 11.3 | 14.5 | 0.00 | 0.03 | 0.03 | 90 | 1017.7 |
| 20260502090843 | 11 | 135 | 11.3 | 12.9 | 0.00 | 0.03 | 0.03 | 90 | 1017.7 |
| 20260502090742 | 11 | 130 | 11.3 | 14.5 | 0.00 | 0.03 | 0.03 | 90 | 1017.7 |
| 20260502090642 | 11 | 112 | 12.9 | 14.5 | 0.00 | 0.03 | 0.03 | 91 | 1017.8 |
| 20260502090542 | 11 | 124 | 12.9 | 16.1 | 0.00 | 0.03 | 0.03 | 90 | 1017.8 |
| 20260502090442 | 11 | 101 | 12.9 | 14.5 | 0.00 | 0.03 | 0.03 | 90 | 1017.9 |
| 20260502090342 | 11 | 98 | 11.3 | 16.1 | 0.00 | 0.03 | 0.03 | 91 | 1017.9 |
| 20260502090242 | 11 | 122 | 11.3 | 12.9 | 0.00 | 0.03 | 0.03 | 90 | 1017.8 |
| 20260502090142 | 11 | 106 | 9.7 | 16.1 | 0.00 | 0.03 | 0.03 | 90 | 1017.9 |
| 20260502071535 | 10 | 111 | 12.9 | 14.5 | 0.00 | 0.03 | 0.03 | 91 | 1018.5 |
| 20260502071435 | 10 | 118 | 11.3 | 14.5 | 0.00 | 0.03 | 0.03 | 91 | 1018.5 |
| 20260502071334 | 10 | 102 | 11.3 | 12.9 | 0.00 | 0.03 | 0.03 | 92 | 1018.5 |
| 20260502071234 | 10 | 116 | 9.7 | 16.1 | 0.00 | 0.03 | 0.03 | 92 | 1018.4 |
| 20260502071134 | 10 | 120 | 11.3 | 12.9 | 0.00 | 0.03 | 0.03 | 91 | 1018.4 |
| 20260502071034 | 10 | 118 | 12.9 | 16.1 | 0.00 | 0.03 | 0.03 | 91 | 1018.4 |
| 20260502070934 | 10 | 116 | 11.3 | 14.5 | 0.00 | 0.03 | 0.03 | 92 | 1018.4 |
| 20260502070834 | 10 | 102 | 9.7 | 14.5 | 0.00 | 0.03 | 0.03 | 92 | 1018.4 |
| 20260502070734 | 10 | 91 | 8.0 | 12.9 | 0.00 | 0.03 | 0.03 | 92 | 1018.4 |
| 20260502070634 | 10 | 97 | 11.3 | 12.9 | 0.00 | 0.03 | 0.03 | 91 | 1018.4 |
| 20260502070534 | 10 | 105 | 11.3 | 16.1 | 0.00 | 0.03 | 0.03 | 91 | 1018.4 |
| 20260502070434 | 10 | 95 | 11.3 | 14.5 | 0.00 | 0.03 | 0.03 | 91 | 1018.4 |
| 20260502070334 | 10 | 97 | 12.9 | 12.9 | 0.00 | 0.03 | 0.03 | 91 | 1018.4 |
| 20260502070234 | 10 | 107 | 12.9 | 16.1 | 0.00 | 0.03 | 0.03 | 92 | 1018.4 |
| 20260502070134 | 10 | 113 | 11.3 | 14.5 | 0.00 | 0.03 | 0.03 | 92 | 1018.5 |
| 20260502070034 | 10 | 124 | 9.7 | 16.1 | 0.00 | 0.03 | 0.03 | 92 | 1018.4 |
| 20260502065934 | 10 | 108 | 9.7 | 11.3 | 0.00 | 0.03 | 0.03 | 92 | 1018.4 |
| 20260502065834 | 10 | 89 | 11.3 | 12.9 | 0.00 | 0.03 | 0.03 | 92 | 1018.4 |
| 20260502065733 | 10 | 109 | 11.3 | 14.5 | 0.00 | 0.03 | 0.03 | 92 | 1018.4 |
| 20260502065603 | 10 | 113 | 11.3 | 14.5 | 0.00 | 0.03 | 0.03 | 92 | 1018.4 |
| 20260502065503 | 10 | 114 | 11.3 | 12.9 | 0.00 | 0.03 | 0.03 | 92 | 1018.5 |
| 20260502065403 | 10 | 109 | 9.7 | 14.5 | 0.00 | 0.03 | 0.03 | 92 | 1018.5 |
| 20260502065306 | 10 | 102 | 9.7 | 11.3 | 0.00 | 0.03 | 0.03 | 92 | 1018.5 |
| 20260502065203 | 10 | 96 | 9.7 | 11.3 | 0.00 | 0.03 | 0.03 | 92 | 1018.6 |
| 20260502065103 | 10 | 95 | 9.7 | 12.9 | 0.00 | 0.03 | 0.03 | 92 | 1018.6 |
| 20260502065003 | 10 | 90 | 8.0 | 11.3 | 0.00 | 0.03 | 0.03 | 92 | 1018.7 |
| 20260502064903 | 10 | 105 | 8.0 | 9.7 | 0.00 | 0.03 | 0.03 | 92 | 1018.6 |
| 20260502064803 | 10 | 99 | 8.0 | 9.7 | 0.00 | 0.03 | 0.03 | 92 | 1018.7 |
| 20260502064703 | 10 | 97 | 8.0 | 9.7 | 0.00 | 0.03 | 0.03 | 92 | 1018.7 |
| 20260502064603 | 10 | 93 | 9.7 | 11.3 | 0.00 | 0.03 | 0.03 | 92 | 1018.6 |
| 20260502064503 | 10 | 104 | 9.7 | 12.9 | 0.00 | 0.03 | 0.03 | 92 | 1018.6 |
| 20260502064403 | 10 | 105 | 4.8 | 12.9 | 0.00 | 0.03 | 0.03 | 92 | 1018.6 |
| 20260502064303 | 10 | 89 | 8.0 | 9.7 | 0.03 | 0.03 | 0.03 | 92 | 1018.6 |
| 20260502064203 | 10 | 93 | 8.0 | 8.0 | 0.03 | 0.03 | 0.03 | 92 | 1018.6 |
| 20260502064103 | 10 | 81 | 8.0 | 9.7 | 0.03 | 0.03 | 0.03 | 92 | 1018.6 |
| 20260502063933 | 10 | 103 | 4.8 | 8.0 | 0.03 | 0.03 | 0.03 | 92 | 1018.6 |
| 20260502063832 | 10 | 84 | 8.0 | 9.7 | 0.03 | 0.03 | 0.03 | 92 | 1018.6 |
| 20260502063732 | 10 | 81 | 4.8 | 9.7 | 0.03 | 0.03 | 0.03 | 91 | 1018.6 |
| 20260502063632 | 10 | 92 | 8.0 | 8.0 | 0.03 | 0.03 | 0.03 | 91 | 1018.6 |
| 20260502063532 | 10 | 89 | 4.8 | 9.7 | 0.03 | 0.03 | 0.03 | 91 | 1018.7 |
| 20260502063432 | 10 | 102 | 4.8 | 8.0 | 0.03 | 0.03 | 0.03 | 92 | 1018.7 |
| 20260502063332 | 10 | 105 | 4.8 | 8.0 | 0.03 | 0.03 | 0.03 | 92 | 1018.7 |
| 20260502063232 | 10 | 121 | 4.8 | 4.8 | 0.03 | 0.03 | 0.03 | 92 | 1018.7 |
| 20260502063132 | 10 | 125 | 4.8 | 4.8 | 0.03 | 0.03 | 0.03 | 92 | 1018.7 |
| 20260502063032 | 10 | 127 | 4.8 | 8.0 | 0.03 | 0.03 | 0.03 | 92 | 1018.7 |
| 20260502062932 | 10 | 126 | 8.0 | 8.0 | 0.03 | 0.03 | 0.03 | 92 | 1018.7 |
| 20260502062832 | 10 | 124 | 8.0 | 8.0 | 0.03 | 0.03 | 0.03 | 92 | 1018.7 |
| 20260502062732 | 10 | 123 | 8.0 | 9.7 | 0.03 | 0.03 | 0.03 | 92 | 1018.7 |
| 20260502062632 | 10 | 126 | 8.0 | 8.0 | 0.03 | 0.03 | 0.03 | 92 | 1018.6 |
| 20260502062532 | 10 | 130 | 4.8 | 9.7 | 0.03 | 0.03 | 0.03 | 92 | 1018.6 |
| 20260502062432 | 10 | 122 | 4.8 | 8.0 | 0.03 | 0.03 | 0.03 | 92 | 1018.7 |
| 20260502062332 | 10 | 126 | 4.8 | 8.0 | 0.03 | 0.03 | 0.03 | 92 | 1018.6 |
| 20260502062232 | 10 | 125 | 4.8 | 8.0 | 0.03 | 0.03 | 0.03 | 92 | 1018.6 |
| 20260502062131 | 10 | 119 | 3.2 | 4.8 | 0.03 | 0.03 | 0.03 | 92 | 1018.6 |
| 20260502062031 | 10 | 113 | 3.2 | 3.2 | 0.03 | 0.03 | 0.03 | 92 | 1018.6 |
| 20260502061931 | 10 | 107 | 3.2 | 4.8 | 0.03 | 0.03 | 0.03 | 92 | 1018.6 |
| 20260502061831 | 10 | 103 | 3.2 | 4.8 | 0.03 | 0.03 | 0.03 | 92 | 1018.6 |
| 20260502061731 | 10 | 88 | 3.2 | 4.8 | 0.03 | 0.03 | 0.03 | 92 | 1018.6 |
| 20260502061631 | 10 | 101 | 3.2 | 4.8 | 0.03 | 0.03 | 0.03 | 92 | 1018.6 |
| 20260502061531 | 10 | 109 | 3.2 | 4.8 | 0.03 | 0.03 | 0.03 | 92 | 1018.6 |
| 20260502061431 | 10 | 96 | 1.6 | 3.2 | 0.03 | 0.03 | 0.03 | 92 | 1018.6 |
| 20260502061331 | 10 | 93 | 3.2 | 4.8 | 0.03 | 0.03 | 0.03 | 92 | 1018.7 |
| 20260502061231 | 10 | 89 | 1.6 | 4.8 | 0.03 | 0.03 | 0.03 | 92 | 1018.6 |
| 20260502061131 | 10 | 125 | 1.6 | 3.2 | 0.03 | 0.03 | 0.03 | 92 | 1018.7 |
| 20260502061031 | 10 | 149 | 1.6 | 3.2 | 0.03 | 0.03 | 0.03 | 92 | 1018.7 |
| 20260502060931 | 10 | 146 | 1.6 | 1.6 | 0.03 | 0.03 | 0.03 | 92 | 1018.7 |
| 20260502060830 | 10 | 156 | 1.6 | 1.6 | 0.03 | 0.03 | 0.03 | 92 | 1018.7 |
| 20260502060730 | 10 | 150 | 3.2 | 3.2 | 0.03 | 0.03 | 0.03 | 92 | 1018.7 |
| 20260502060630 | 10 | 135 | 3.2 | 3.2 | 0.03 | 0.03 | 0.03 | 92 | 1018.7 |
| 20260502060530 | 10 | 138 | 1.6 | 3.2 | 0.03 | 0.03 | 0.03 | 92 | 1018.7 |
| 20260502060430 | 10 | 134 | 1.6 | 3.2 | 0.03 | 0.03 | 0.03 | 92 | 1018.6 |
| 20260502060330 | 10 | 89 | 3.2 | 4.8 | 0.03 | 0.03 | 0.03 | 92 | 1018.7 |
| 20260502060230 | 10 | 103 | 1.6 | 4.8 | 0.03 | 0.03 | 0.03 | 92 | 1018.6 |
| 20260502060130 | 10 | 122 | 3.2 | 3.2 | 0.03 | 0.03 | 0.03 | 91 | 1018.6 |
| 20260502060030 | 10 | 97 | 3.2 | 4.8 | 0.03 | 0.03 | 0.03 | 91 | 1018.5 |
| 20260502055930 | 10 | 98 | 3.2 | 4.8 | 0.03 | 0.03 | 0.03 | 91 | 1018.5 |
| 20260502055830 | 10 | 100 | 1.6 | 4.8 | 0.03 | 0.03 | 0.03 | 91 | 1018.5 |
| 20260502055730 | 10 | 95 | 1.6 | 3.2 | 0.03 | 0.03 | 0.03 | 91 | 1018.5 |
| 20260502055629 | 10 | 83 | 1.6 | 1.6 | 0.03 | 0.03 | 0.03 | 91 | 1018.5 |
| 20260502055529 | 10 | 126 | 1.6 | 3.2 | 0.03 | 0.03 | 0.03 | 91 | 1018.6 |
| 20260502055429 | 10 | 141 | 0.0 | 3.2 | 0.03 | 0.03 | 0.03 | 91 | 1018.6 |
| 20260502055329 | 10 | 137 | 0.0 | 1.6 | 0.03 | 0.03 | 0.03 | 91 | 1018.6 |
| 20260502055229 | 10 | 117 | 1.6 | 1.6 | 0.03 | 0.03 | 0.03 | 91 | 1018.5 |
| 20260502055129 | 10 | 113 | 1.6 | 3.2 | 0.03 | 0.03 | 0.03 | 91 | 1018.6 |
| 20260502055029 | 10 | 123 | 0.0 | 3.2 | 0.03 | 0.03 | 0.03 | 91 | 1018.5 |
| 20260502054929 | 10 | 73 | 0.0 | 1.6 | 0.03 | 0.03 | 0.03 | 91 | 1018.5 |
| 20260502054829 | 10 | 73 | 1.6 | 1.6 | 0.03 | 0.03 | 0.03 | 91 | 1018.5 |
| 20260502054729 | 10 | 69 | 3.2 | 3.2 | 0.03 | 0.03 | 0.03 | 91 | 1018.4 |
| 20260502054629 | 10 | 71 | 3.2 | 4.8 | 0.03 | 0.03 | 0.03 | 91 | 1018.5 |
| 20260502054529 | 10 | 71 | 4.8 | 4.8 | 0.03 | 0.03 | 0.03 | 91 | 1018.5 |
| 20260502054429 | 10 | 65 | 3.2 | 4.8 | 0.03 | 0.03 | 0.03 | 91 | 1018.5 |
| 20260502054329 | 10 | 73 | 3.2 | 3.2 | 0.00 | 0.00 | 0.00 | 91 | 1018.5 |
| 20260502054229 | 10 | 68 | 3.2 | 4.8 | 0.00 | 0.00 | 0.00 | 91 | 1018.5 |
| 20260502054129 | 10 | 66 | 3.2 | 4.8 | 0.00 | 0.00 | 0.00 | 91 | 1018.5 |
| 20260502054028 | 10 | 66 | 3.2 | 4.8 | 0.00 | 0.00 | 0.00 | 91 | 1018.5 |
| 20260502053928 | 10 | 66 | 3.2 | 4.8 | 0.00 | 0.00 | 0.00 | 91 | 1018.5 |
| 20260502053828 | 10 | 73 | 3.2 | 4.8 | 0.00 | 0.00 | 0.00 | 91 | 1018.5 |
| 20260502053728 | 10 | 65 | 3.2 | 4.8 | 0.00 | 0.00 | 0.00 | 91 | 1018.5 |
| 20260502053628 | 10 | 68 | 3.2 | 4.8 | 0.00 | 0.00 | 0.00 | 91 | 1018.5 |
| 20260502053529 | 10 | 66 | 3.2 | 4.8 | 0.00 | 0.00 | 0.00 | 91 | 1018.5 |
| 20260502053428 | 10 | 65 | 3.2 | 4.8 | 0.00 | 0.00 | 0.00 | 91 | 1018.6 |
| 20260502053328 | 10 | 79 | 1.6 | 3.2 | 0.00 | 0.00 | 0.00 | 91 | 1018.6 |
| 20260502053228 | 10 | 84 | 3.2 | 4.8 | 0.00 | 0.00 | 0.00 | 91 | 1018.6 |
| 20260502053128 | 10 | 99 | 1.6 | 4.8 | 0.00 | 0.00 | 0.00 | 91 | 1018.7 |
| 20260502053028 | 10 | 108 | 3.2 | 3.2 | 0.00 | 0.00 | 0.00 | 91 | 1018.7 |
| 20260502052928 | 10 | 96 | 1.6 | 4.8 | 0.00 | 0.00 | 0.00 | 91 | 1018.7 |
| 20260502052828 | 10 | 98 | 1.6 | 3.2 | 0.00 | 0.00 | 0.00 | 91 | 1018.7 |
| 20260502052658 | 10 | 99 | 3.2 | 4.8 | 0.00 | 0.00 | 0.00 | 91 | 1018.8 |
| 20260502052558 | 10 | 111 | 1.6 | 4.8 | 0.00 | 0.00 | 0.00 | 91 | 1018.8 |
| 20260502052458 | 10 | 121 | 1.6 | 3.2 | 0.00 | 0.00 | 0.00 | 91 | 1018.8 |
| 20260502052358 | 10 | 130 | 1.6 | 3.2 | 0.00 | 0.00 | 0.00 | 91 | 1018.8 |
| 20260502052258 | 10 | 132 | 3.2 | 3.2 | 0.00 | 0.00 | 0.00 | 91 | 1018.8 |
| 20260502052157 | 10 | 125 | 1.6 | 3.2 | 0.00 | 0.00 | 0.00 | 91 | 1018.8 |
| 20260502052057 | 10 | 123 | 1.6 | 3.2 | 0.00 | 0.00 | 0.00 | 91 | 1018.8 |
| 20260502051957 | 10 | 118 | 1.6 | 1.6 | 0.00 | 0.00 | 0.00 | 91 | 1018.7 |
| 20260502051857 | 10 | 114 | 1.6 | 3.2 | 0.00 | 0.00 | 0.00 | 92 | 1018.8 |
| 20260502051757 | 10 | 101 | 1.6 | 3.2 | 0.00 | 0.00 | 0.00 | 91 | 1018.7 |
| 20260502051657 | 10 | 107 | 1.6 | 3.2 | 0.00 | 0.00 | 0.00 | 91 | 1018.7 |
| 20260502051557 | 10 | 102 | 1.6 | 3.2 | 0.00 | 0.00 | 0.00 | 91 | 1018.7 |
| 20260502051457 | 10 | 120 | 0.0 | 1.6 | 0.00 | 0.00 | 0.00 | 91 | 1018.7 |
| 20260502051357 | 10 | 122 | 1.6 | 1.6 | 0.00 | 0.00 | 0.00 | 91 | 1018.7 |
| 20260502051257 | 10 | 126 | 1.6 | 1.6 | 0.00 | 0.00 | 0.00 | 91 | 1018.7 |
| 20260502051157 | 10 | 131 | 1.6 | 1.6 | 0.00 | 0.00 | 0.00 | 91 | 1018.8 |
| 20260502051057 | 10 | 121 | 1.6 | 1.6 | 0.00 | 0.00 | 0.00 | 91 | 1018.8 |
| 20260502050957 | 10 | 119 | 1.6 | 1.6 | 0.00 | 0.00 | 0.00 | 91 | 1018.8 |
| 20260502050857 | 10 | 128 | 0.0 | 1.6 | 0.00 | 0.00 | 0.00 | 91 | 1018.8 |
| 20260502050757 | 10 | 134 | 1.6 | 1.6 | 0.00 | 0.00 | 0.00 | 91 | 1018.8 |
| 20260502050657 | 10 | 146 | 1.6 | 1.6 | 0.00 | 0.00 | 0.00 | 91 | 1018.8 |
| 20260502050557 | 10 | 152 | 1.6 | 1.6 | 0.00 | 0.00 | 0.00 | 91 | 1018.9 |
| 20260502050457 | 10 | 152 | 1.6 | 1.6 | 0.00 | 0.00 | 0.00 | 91 | 1018.8 |
| 20260502050356 | 10 | 152 | 1.6 | 1.6 | 0.00 | 0.00 | 0.00 | 91 | 1018.8 |
| 20260502050256 | 10 | 143 | 0.0 | 1.6 | 0.00 | 0.00 | 0.00 | 91 | 1018.9 |
| 20260502050156 | 10 | 103 | 0.0 | 1.6 | 0.00 | 0.00 | 0.00 | 91 | 1018.8 |
| 20260502050056 | 10 | 103 | 0.0 | 0.0 | 0.00 | 0.00 | 0.00 | 91 | 1018.8 |
| 20260502045956 | 10 | 103 | 0.0 | 1.6 | 0.00 | 0.00 | 0.00 | 91 | 1018.8 |
| 20260502045856 | 10 | 103 | 0.0 | 1.6 | 0.00 | 0.00 | 0.00 | 91 | 1018.7 |
| 20260502045726 | 10 | 103 | 1.6 | 1.6 | 0.00 | 0.00 | 0.00 | 91 | 1018.7 |
| 20260502045626 | 10 | 99 | 1.6 | 3.2 | 0.00 | 0.00 | 0.00 | 91 | 1018.7 |
| 20260502045526 | 10 | 78 | 3.2 | 4.8 | 0.00 | 0.00 | 0.00 | 91 | 1018.6 |
| 20260502045426 | 10 | 78 | 3.2 | 4.8 | 0.00 | 0.00 | 0.00 | 91 | 1018.6 |
| 20260502045326 | 10 | 88 | 3.2 | 3.2 | 0.00 | 0.00 | 0.00 | 91 | 1018.6 |
| 20260502045226 | 10 | 86 | 3.2 | 3.2 | 0.00 | 0.00 | 0.00 | 91 | 1018.6 |
| 20260502045125 | 10 | 91 | 1.6 | 3.2 | 0.00 | 0.00 | 0.00 | 91 | 1018.6 |
| 20260502045025 | 10 | 90 | 1.6 | 3.2 | 0.00 | 0.00 | 0.00 | 91 | 1018.7 |
| 20260502044925 | 10 | 102 | 1.6 | 3.2 | 0.00 | 0.00 | 0.00 | 91 | 1018.6 |
| 20260502044825 | 10 | 118 | 1.6 | 3.2 | 0.00 | 0.00 | 0.00 | 91 | 1018.7 |
| 20260502044725 | 10 | 113 | 3.2 | 3.2 | 0.00 | 0.00 | 0.00 | 91 | 1018.7 |
| 20260502044625 | 10 | 91 | 3.2 | 4.8 | 0.00 | 0.00 | 0.00 | 91 | 1018.7 |
| 20260502044525 | 10 | 98 | 1.6 | 3.2 | 0.00 | 0.00 | 0.00 | 91 | 1018.7 |
| 20260502044425 | 10 | 108 | 1.6 | 3.2 | 0.00 | 0.00 | 0.00 | 91 | 1018.6 |
| 20260502044325 | 10 | 106 | 1.6 | 3.2 | 0.00 | 0.00 | 0.00 | 91 | 1018.7 |
| 20260502044225 | 10 | 108 | 1.6 | 1.6 | 0.00 | 0.00 | 0.00 | 91 | 1018.7 |
| 20260502044125 | 10 | 113 | 1.6 | 3.2 | 0.00 | 0.00 | 0.00 | 91 | 1018.7 |
| 20260502044025 | 10 | 113 | 1.6 | 3.2 | 0.00 | 0.00 | 0.00 | 91 | 1018.7 |
| 20260502043925 | 10 | 117 | 3.2 | 3.2 | 0.00 | 0.00 | 0.00 | 91 | 1018.7 |
| 20260502043825 | 10 | 105 | 3.2 | 4.8 | 0.00 | 0.00 | 0.00 | 91 | 1018.7 |
| 20260502043724 | 10 | 104 | 1.6 | 3.2 | 0.00 | 0.00 | 0.00 | 91 | 1018.7 |
| 20260502043624 | 10 | 115 | 1.6 | 3.2 | 0.00 | 0.00 | 0.00 | 91 | 1018.7 |
| 20260502043524 | 10 | 123 | 3.2 | 3.2 | 0.00 | 0.00 | 0.00 | 91 | 1018.7 |
| 20260502043424 | 10 | 104 | 3.2 | 4.8 | 0.00 | 0.00 | 0.00 | 91 | 1018.7 |
| 20260502043324 | 10 | 90 | 3.2 | 4.8 | 0.00 | 0.00 | 0.00 | 91 | 1018.7 |
| 20260502043224 | 10 | 89 | 3.2 | 3.2 | 0.00 | 0.00 | 0.00 | 91 | 1018.7 |
| 20260502043124 | 10 | 84 | 3.2 | 4.8 | 0.00 | 0.00 | 0.00 | 91 | 1018.6 |
| 20260502043024 | 10 | 77 | 3.2 | 4.8 | 0.00 | 0.00 | 0.00 | 90 | 1018.6 |
| 20260502042924 | 10 | 77 | 1.6 | 3.2 | 0.00 | 0.00 | 0.00 | 91 | 1018.6 |
| 20260502042824 | 10 | 78 | 1.6 | 3.2 | 0.00 | 0.00 | 0.00 | 91 | 1018.6 |
| 20260502042724 | 10 | 78 | 3.2 | 3.2 | 0.00 | 0.00 | 0.00 | 91 | 1018.7 |
| 20260502042624 | 10 | 73 | 3.2 | 4.8 | 0.00 | 0.00 | 0.00 | 91 | 1018.7 |
| 20260502042524 | 10 | 73 | 3.2 | 3.2 | 0.00 | 0.00 | 0.00 | 91 | 1018.7 |
| 20260502042424 | 10 | 73 | 3.2 | 3.2 | 0.00 | 0.00 | 0.00 | 91 | 1018.7 |
| 20260502042323 | 10 | 74 | 3.2 | 4.8 | 0.00 | 0.00 | 0.00 | 91 | 1018.7 |
| 20260502042223 | 10 | 78 | 3.2 | 4.8 | 0.00 | 0.00 | 0.00 | 91 | 1018.7 |
| 20260502042123 | 10 | 96 | 3.2 | 4.8 | 0.00 | 0.00 | 0.00 | 91 | 1018.7 |
| 20260502042023 | 10 | 92 | 4.8 | 4.8 | 0.00 | 0.00 | 0.00 | 91 | 1018.7 |
| 20260502041923 | 10 | 88 | 3.2 | 4.8 | 0.00 | 0.00 | 0.00 | 91 | 1018.7 |
| 20260502041823 | 10 | 91 | 3.2 | 3.2 | 0.00 | 0.00 | 0.00 | 91 | 1018.7 |
| 20260502041723 | 10 | 91 | 3.2 | 3.2 | 0.00 | 0.00 | 0.00 | 91 | 1018.7 |
| 20260502041623 | 10 | 86 | 3.2 | 3.2 | 0.00 | 0.00 | 0.00 | 91 | 1018.8 |
| 20260502041523 | 10 | 86 | 1.6 | 3.2 | 0.00 | 0.00 | 0.00 | 91 | 1018.8 |
| 20260502041423 | 10 | 83 | 1.6 | 3.2 | 0.00 | 0.00 | 0.00 | 91 | 1018.8 |
| 20260502041322 | 10 | 79 | 1.6 | 3.2 | 0.00 | 0.00 | 0.00 | 91 | 1018.8 |
| 20260502041152 | 10 | 79 | 1.6 | 1.6 | 0.00 | 0.00 | 0.00 | 91 | 1018.9 |
| 20260502041052 | 10 | 81 | 3.2 | 3.2 | 0.00 | 0.00 | 0.00 | 91 | 1018.8 |
| 20260502040952 | 10 | 80 | 3.2 | 4.8 | 0.00 | 0.00 | 0.00 | 91 | 1018.9 |
| 20260502040852 | 10 | 85 | 3.2 | 4.8 | 0.00 | 0.00 | 0.00 | 91 | 1018.8 |
| 20260502040752 | 10 | 88 | 3.2 | 4.8 | 0.00 | 0.00 | 0.00 | 91 | 1018.8 |
| 20260502040652 | 10 | 81 | 3.2 | 4.8 | 0.00 | 0.00 | 0.00 | 91 | 1018.8 |
| 20260502040552 | 10 | 87 | 3.2 | 3.2 | 0.00 | 0.00 | 0.00 | 91 | 1018.8 |
| 20260502040452 | 10 | 87 | 3.2 | 4.8 | 0.00 | 0.00 | 0.00 | 91 | 1018.8 |
| 20260502040352 | 10 | 91 | 1.6 | 3.2 | 0.00 | 0.00 | 0.00 | 91 | 1018.8 |
| 20260502040252 | 10 | 95 | 1.6 | 3.2 | 0.00 | 0.00 | 0.00 | 91 | 1018.8 |
| 20260502040152 | 10 | 97 | 1.6 | 3.2 | 0.00 | 0.00 | 0.00 | 91 | 1018.8 |
| 20260502040052 | 10 | 117 | 1.6 | 3.2 | 0.00 | 0.00 | 0.00 | 91 | 1018.8 |
| 20260502035952 | 10 | 106 | 1.6 | 3.2 | 0.00 | 0.00 | 0.00 | 91 | 1018.8 |
| 20260502035851 | 10 | 111 | 1.6 | 1.6 | 0.00 | 0.00 | 0.00 | 91 | 1018.8 |
| 20260502035722 | 10 | 107 | 1.6 | 1.6 | 0.00 | 0.00 | 0.00 | 90 | 1018.8 |
| 20260502035621 | 10 | 54 | 0.0 | 1.6 | 0.00 | 0.00 | 0.00 | 91 | 1018.8 |
| 20260502035521 | 10 | 53 | 0.0 | 1.6 | 0.00 | 0.00 | 0.00 | 91 | 1018.8 |
| 20260502035421 | 10 | 53 | 0.0 | 1.6 | 0.00 | 0.00 | 0.00 | 91 | 1018.8 |
| 20260502035321 | 10 | 53 | 1.6 | 1.6 | 0.00 | 0.00 | 0.00 | 91 | 1018.8 |
| 20260502035221 | 10 | 53 | 1.6 | 3.2 | 0.00 | 0.00 | 0.00 | 91 | 1018.8 |
| 20260502035121 | 10 | 52 | 1.6 | 3.2 | 0.00 | 0.00 | 0.00 | 91 | 1018.9 |
| 20260502035021 | 10 | 51 | 1.6 | 3.2 | 0.00 | 0.00 | 0.00 | 90 | 1018.8 |
| 20260502034921 | 10 | 58 | 1.6 | 3.2 | 0.00 | 0.00 | 0.00 | 90 | 1018.8 |
| 20260502034751 | 10 | 76 | 1.6 | 3.2 | 0.00 | 0.00 | 0.00 | 90 | 1018.8 |
| 20260502034651 | 10 | 80 | 1.6 | 1.6 | 0.00 | 0.00 | 0.00 | 90 | 1018.8 |
| 20260502034551 | 10 | 86 | 1.6 | 3.2 | 0.00 | 0.00 | 0.00 | 90 | 1018.9 |
| 20260502034451 | 10 | 108 | 1.6 | 3.2 | 0.00 | 0.00 | 0.00 | 91 | 1018.8 |
| 20260502034351 | 10 | 96 | 1.6 | 4.8 | 0.00 | 0.00 | 0.00 | 90 | 1018.9 |
| 20260502034251 | 10 | 97 | 1.6 | 3.2 | 0.00 | 0.00 | 0.00 | 90 | 1018.8 |
| 20260502034150 | 10 | 95 | 1.6 | 1.6 | 0.00 | 0.00 | 0.00 | 90 | 1018.8 |
| 20260502034050 | 10 | 84 | 1.6 | 1.6 | 0.00 | 0.00 | 0.00 | 90 | 1018.8 |
| 20260502033950 | 10 | 84 | 1.6 | 3.2 | 0.00 | 0.00 | 0.00 | 90 | 1018.8 |
| 20260502033850 | 10 | 84 | 3.2 | 3.2 | 0.00 | 0.00 | 0.00 | 90 | 1018.8 |
| 20260502033750 | 10 | 94 | 1.6 | 3.2 | 0.00 | 0.00 | 0.00 | 90 | 1018.8 |
| 20260502033650 | 10 | 98 | 1.6 | 1.6 | 0.00 | 0.00 | 0.00 | 90 | 1018.8 |
| 20260502033550 | 10 | 98 | 1.6 | 1.6 | 0.00 | 0.00 | 0.00 | 91 | 1018.9 |
| 20260502033450 | 10 | 99 | 1.6 | 1.6 | 0.00 | 0.00 | 0.00 | 91 | 1018.9 |
| 20260502033350 | 10 | 99 | 1.6 | 3.2 | 0.00 | 0.00 | 0.00 | 91 | 1018.9 |
| 20260502033250 | 10 | 102 | 1.6 | 3.2 | 0.00 | 0.00 | 0.00 | 91 | 1019.0 |
| 20260502033150 | 10 | 102 | 1.6 | 3.2 | 0.00 | 0.00 | 0.00 | 91 | 1019.0 |
| 20260502033050 | 10 | 110 | 1.6 | 3.2 | 0.00 | 0.00 | 0.00 | 91 | 1019.0 |
| 20260502032949 | 10 | 122 | 1.6 | 3.2 | 0.00 | 0.00 | 0.00 | 91 | 1019.0 |
| 20260502032849 | 10 | 133 | 1.6 | 3.2 | 0.00 | 0.00 | 0.00 | 91 | 1019.0 |
| 20260502032749 | 10 | 133 | 1.6 | 3.2 | 0.00 | 0.00 | 0.00 | 91 | 1019.0 |
| 20260502032649 | 10 | 135 | 1.6 | 3.2 | 0.00 | 0.00 | 0.00 | 91 | 1019.0 |
| 20260502032549 | 10 | 137 | 1.6 | 3.2 | 0.00 | 0.00 | 0.00 | 91 | 1019.0 |
| 20260502032449 | 10 | 141 | 1.6 | 1.6 | 0.00 | 0.00 | 0.00 | 91 | 1019.1 |
| 20260502032349 | 10 | 144 | 1.6 | 3.2 | 0.00 | 0.00 | 0.00 | 90 | 1019.1 |
| 20260502032249 | 10 | 149 | 1.6 | 3.2 | 0.00 | 0.00 | 0.00 | 90 | 1019.1 |
| 20260502032149 | 10 | 154 | 1.6 | 3.2 | 0.00 | 0.00 | 0.00 | 90 | 1019.1 |
| 20260502032049 | 10 | 168 | 1.6 | 3.2 | 0.00 | 0.00 | 0.00 | 90 | 1019.1 |
| 20260502031949 | 10 | 164 | 3.2 | 3.2 | 0.00 | 0.00 | 0.00 | 90 | 1019.2 |
| 20260502031849 | 10 | 152 | 1.6 | 3.2 | 0.00 | 0.00 | 0.00 | 90 | 1019.2 |
| 20260502031748 | 10 | 154 | 3.2 | 3.2 | 0.00 | 0.00 | 0.00 | 90 | 1019.2 |
| 20260502031648 | 10 | 155 | 1.6 | 3.2 | 0.00 | 0.00 | 0.00 | 90 | 1019.2 |
| 20260502031548 | 10 | 157 | 1.6 | 3.2 | 0.00 | 0.00 | 0.00 | 91 | 1019.1 |
| 20260502031448 | 10 | 147 | 1.6 | 1.6 | 0.00 | 0.00 | 0.00 | 91 | 1019.1 |
| 20260502031348 | 10 | 141 | 1.6 | 1.6 | 0.00 | 0.00 | 0.00 | 91 | 1019.2 |
| 20260502031248 | 10 | 138 | 1.6 | 1.6 | 0.00 | 0.00 | 0.00 | 91 | 1019.1 |
| 20260502031118 | 10 | 136 | 1.6 | 1.6 | 0.00 | 0.00 | 0.00 | 91 | 1019.1 |
| 20260502031018 | 10 | 109 | 1.6 | 3.2 | 0.00 | 0.00 | 0.00 | 91 | 1019.1 |
| 20260502030848 | 10 | 77 | 3.2 | 3.2 | 0.00 | 0.00 | 0.00 | 91 | 1019.1 |
| 20260502030748 | 10 | 72 | 3.2 | 4.8 | 0.00 | 0.00 | 0.00 | 91 | 1019.1 |
| 20260502030648 | 10 | 77 | 3.2 | 3.2 | 0.00 | 0.00 | 0.00 | 91 | 1019.1 |
| 20260502030548 | 10 | 67 | 3.2 | 4.8 | 0.00 | 0.00 | 0.00 | 91 | 1019.1 |
| 20260502030448 | 10 | 67 | 3.2 | 4.8 | 0.00 | 0.00 | 0.00 | 91 | 1019.1 |
| 20260502030348 | 10 | 64 | 3.2 | 4.8 | 0.00 | 0.00 | 0.00 | 91 | 1019.1 |
| 20260502030247 | 10 | 63 | 3.2 | 4.8 | 0.00 | 0.00 | 0.00 | 91 | 1019.1 |
| 20260502030147 | 10 | 62 | 3.2 | 4.8 | 0.00 | 0.00 | 0.00 | 91 | 1019.1 |
| 20260502030047 | 10 | 61 | 4.8 | 4.8 | 0.00 | 0.00 | 0.00 | 91 | 1019.1 |
| 20260502025947 | 10 | 60 | 3.2 | 4.8 | 0.00 | 0.00 | 0.00 | 91 | 1019.1 |
| 20260502025847 | 10 | 59 | 4.8 | 4.8 | 0.00 | 0.00 | 0.00 | 91 | 1019.1 |
| 20260502025747 | 10 | 56 | 4.8 | 4.8 | 0.00 | 0.00 | 0.00 | 91 | 1019.1 |
| 20260502025617 | 10 | 62 | 3.2 | 4.8 | 0.00 | 0.00 | 0.00 | 91 | 1019.1 |
| 20260502025517 | 10 | 61 | 4.8 | 4.8 | 0.00 | 0.00 | 0.00 | 91 | 1019.1 |
| 20260502025417 | 10 | 60 | 4.8 | 4.8 | 0.00 | 0.00 | 0.00 | 91 | 1019.1 |
| 20260502025317 | 10 | 58 | 4.8 | 4.8 | 0.00 | 0.00 | 0.00 | 91 | 1019.1 |
| 20260502025217 | 10 | 56 | 4.8 | 4.8 | 0.00 | 0.00 | 0.00 | 91 | 1019.1 |
| 20260502025117 | 10 | 57 | 3.2 | 8.0 | 0.00 | 0.00 | 0.00 | 91 | 1019.1 |
| 20260502025017 | 10 | 65 | 1.6 | 4.8 | 0.00 | 0.00 | 0.00 | 91 | 1019.1 |
| 20260502024917 | 10 | 67 | 1.6 | 3.2 | 0.00 | 0.00 | 0.00 | 91 | 1019.0 |
| 20260502024817 | 10 | 68 | 3.2 | 4.8 | 0.00 | 0.00 | 0.00 | 91 | 1019.1 |
| 20260502024716 | 10 | 49 | 3.2 | 4.8 | 0.00 | 0.00 | 0.00 | 91 | 1019.1 |
| 20260502024616 | 10 | 43 | 3.2 | 3.2 | 0.00 | 0.00 | 0.00 | 91 | 1019.1 |
| 20260502024516 | 10 | 31 | 4.8 | 4.8 | 0.00 | 0.00 | 0.00 | 91 | 1019.1 |
| 20260502024416 | 10 | 23 | 4.8 | 4.8 | 0.00 | 0.00 | 0.00 | 91 | 1019.1 |
| 20260502024316 | 10 | 31 | 3.2 | 4.8 | 0.00 | 0.00 | 0.00 | 91 | 1019.1 |
| 20260502024216 | 10 | 22 | 3.2 | 4.8 | 0.00 | 0.00 | 0.00 | 91 | 1019.1 |
| 20260502024116 | 10 | 12 | 4.8 | 4.8 | 0.00 | 0.00 | 0.00 | 91 | 1019.1 |
| 20260502024016 | 10 | 358 | 4.8 | 4.8 | 0.00 | 0.00 | 0.00 | 91 | 1019.1 |
| 20260502023916 | 10 | 339 | 4.8 | 4.8 | 0.00 | 0.00 | 0.00 | 91 | 1019.1 |
| 20260502023816 | 10 | 340 | 4.8 | 4.8 | 0.00 | 0.00 | 0.00 | 91 | 1019.1 |
| 20260502023716 | 10 | 320 | 3.2 | 4.8 | 0.00 | 0.00 | 0.00 | 91 | 1019.1 |
| 20260502023616 | 10 | 357 | 3.2 | 4.8 | 0.00 | 0.00 | 0.00 | 91 | 1019.1 |
| 20260502023516 | 10 | 36 | 4.8 | 4.8 | 0.00 | 0.00 | 0.00 | 91 | 1019.2 |
| 20260502023416 | 10 | 27 | 4.8 | 4.8 | 0.00 | 0.00 | 0.00 | 91 | 1019.1 |
| 20260502023316 | 10 | 45 | 8.0 | 8.0 | 0.00 | 0.00 | 0.00 | 91 | 1019.1 |
| 20260502023146 | 10 | 49 | 9.7 | 11.3 | 0.00 | 0.00 | 0.00 | 91 | 1019.2 |
| 20260502023046 | 10 | 46 | 9.7 | 11.3 | 0.00 | 0.00 | 0.00 | 91 | 1019.2 |
| 20260502022946 | 10 | 41 | 8.0 | 9.7 | 0.00 | 0.00 | 0.00 | 91 | 1019.2 |
| 20260502022845 | 10 | 26 | 4.8 | 8.0 | 0.00 | 0.00 | 0.00 | 91 | 1019.2 |
| 20260502022745 | 10 | 16 | 4.8 | 4.8 | 0.00 | 0.00 | 0.00 | 91 | 1019.2 |
| 20260502022645 | 10 | 8 | 4.8 | 4.8 | 0.00 | 0.00 | 0.00 | 91 | 1019.2 |
| 20260502022545 | 10 | 10 | 3.2 | 4.8 | 0.00 | 0.00 | 0.00 | 91 | 1019.3 |
| 20260502022445 | 10 | 9 | 3.2 | 4.8 | 0.00 | 0.00 | 0.00 | 91 | 1019.3 |
| 20260502022345 | 10 | 27 | 4.8 | 4.8 | 0.00 | 0.00 | 0.00 | 91 | 1019.3 |
| 20260502022245 | 10 | 12 | 3.2 | 4.8 | 0.00 | 0.00 | 0.00 | 91 | 1019.4 |
| 20260502022145 | 10 | 33 | 3.2 | 4.8 | 0.00 | 0.00 | 0.00 | 91 | 1019.3 |
| 20260502022045 | 10 | 36 | 4.8 | 4.8 | 0.00 | 0.00 | 0.00 | 91 | 1019.4 |
| 20260502021945 | 10 | 25 | 3.2 | 4.8 | 0.00 | 0.00 | 0.00 | 91 | 1019.4 |
| 20260502021845 | 10 | 352 | 3.2 | 4.8 | 0.00 | 0.00 | 0.00 | 91 | 1019.4 |
| 20260502021745 | 10 | 34 | 3.2 | 4.8 | 0.00 | 0.00 | 0.00 | 91 | 1019.4 |
| 20260502021645 | 10 | 54 | 3.2 | 4.8 | 0.00 | 0.00 | 0.00 | 91 | 1019.5 |
| 20260502021544 | 10 | 54 | 3.2 | 3.2 | 0.00 | 0.00 | 0.00 | 91 | 1019.5 |
| 20260502021444 | 10 | 54 | 3.2 | 4.8 | 0.00 | 0.00 | 0.00 | 91 | 1019.5 |
| 20260502021344 | 10 | 51 | 3.2 | 3.2 | 0.00 | 0.00 | 0.00 | 91 | 1019.5 |
| 20260502021244 | 10 | 38 | 3.2 | 4.8 | 0.00 | 0.00 | 0.00 | 91 | 1019.5 |
| 20260502021144 | 10 | 40 | 3.2 | 4.8 | 0.00 | 0.00 | 0.00 | 91 | 1019.5 |
| 20260502021044 | 11 | 43 | 3.2 | 4.8 | 0.00 | 0.00 | 0.00 | 91 | 1019.6 |
| 20260502020944 | 11 | 35 | 3.2 | 4.8 | 0.00 | 0.00 | 0.00 | 91 | 1019.6 |
| 20260502020844 | 11 | 26 | 3.2 | 4.8 | 0.00 | 0.00 | 0.00 | 91 | 1019.6 |
| 20260502020744 | 11 | 17 | 3.2 | 4.8 | 0.00 | 0.00 | 0.00 | 91 | 1019.6 |
| 20260502020644 | 11 | 15 | 1.6 | 3.2 | 0.00 | 0.00 | 0.00 | 91 | 1019.6 |
| 20260502020544 | 11 | 16 | 1.6 | 1.6 | 0.00 | 0.00 | 0.00 | 91 | 1019.6 |
| 20260502020444 | 11 | 15 | 1.6 | 3.2 | 0.00 | 0.00 | 0.00 | 91 | 1019.6 |
| 20260502020344 | 11 | 13 | 3.2 | 3.2 | 0.00 | 0.00 | 0.00 | 91 | 1019.6 |
| 20260502020243 | 11 | 23 | 3.2 | 4.8 | 0.00 | 0.00 | 0.00 | 91 | 1019.6 |
| 20260502020143 | 11 | 3 | 4.8 | 4.8 | 0.00 | 0.00 | 0.00 | 91 | 1019.6 |
| 20260502020043 | 11 | 348 | 3.2 | 4.8 | 0.00 | 0.00 | 0.00 | 91 | 1019.7 |
| 20260502015943 | 11 | 348 | 3.2 | 4.8 | 0.00 | 0.00 | 0.00 | 91 | 1019.7 |
| 20260502015843 | 11 | 330 | 3.2 | 4.8 | 0.00 | 0.00 | 0.00 | 91 | 1019.7 |
| 20260502015743 | 11 | 333 | 3.2 | 3.2 | 0.00 | 0.00 | 0.00 | 91 | 1019.7 |
| 20260502015643 | 11 | 334 | 3.2 | 3.2 | 0.00 | 0.00 | 0.00 | 91 | 1019.7 |
| 20260502015543 | 11 | 333 | 3.2 | 3.2 | 0.00 | 0.00 | 0.00 | 91 | 1019.7 |
| 20260502015443 | 11 | 337 | 3.2 | 3.2 | 0.00 | 0.00 | 0.00 | 91 | 1019.7 |
| 20260502015343 | 11 | 350 | 3.2 | 4.8 | 0.00 | 0.00 | 0.00 | 91 | 1019.7 |
| 20260502015243 | 11 | 357 | 3.2 | 4.8 | 0.00 | 0.00 | 0.00 | 91 | 1019.7 |
| 20260502015143 | 11 | 352 | 3.2 | 4.8 | 0.00 | 0.00 | 0.00 | 91 | 1019.7 |
| 20260502015042 | 11 | 333 | 3.2 | 3.2 | 0.00 | 0.00 | 0.00 | 91 | 1019.7 |
| 20260502014942 | 11 | 325 | 3.2 | 4.8 | 0.00 | 0.00 | 0.00 | 91 | 1019.7 |
| 20260502014842 | 11 | 325 | 3.2 | 4.8 | 0.00 | 0.00 | 0.00 | 91 | 1019.7 |
| 20260502014742 | 11 | 326 | 3.2 | 4.8 | 0.00 | 0.00 | 0.00 | 91 | 1019.7 |
| 20260502014642 | 11 | 325 | 4.8 | 4.8 | 0.00 | 0.00 | 0.00 | 91 | 1019.7 |
| 20260502014542 | 11 | 332 | 4.8 | 4.8 | 0.00 | 0.00 | 0.00 | 91 | 1019.7 |
| 20260502014442 | 11 | 327 | 3.2 | 4.8 | 0.00 | 0.00 | 0.00 | 91 | 1019.7 |
| 20260502014342 | 11 | 327 | 4.8 | 4.8 | 0.00 | 0.00 | 0.00 | 91 | 1019.8 |
| 20260502014242 | 11 | 330 | 4.8 | 4.8 | 0.00 | 0.00 | 0.00 | 91 | 1019.7 |
| 20260502014142 | 11 | 308 | 3.2 | 4.8 | 0.00 | 0.00 | 0.00 | 91 | 1019.7 |
| 20260502014042 | 11 | 308 | 3.2 | 4.8 | 0.00 | 0.00 | 0.00 | 91 | 1019.8 |
| 20260502013942 | 11 | 309 | 3.2 | 4.8 | 0.00 | 0.00 | 0.00 | 91 | 1019.8 |
| 20260502013842 | 11 | 306 | 3.2 | 4.8 | 0.00 | 0.00 | 0.00 | 91 | 1019.8 |
| 20260502013742 | 11 | 308 | 3.2 | 4.8 | 0.00 | 0.00 | 0.00 | 91 | 1019.8 |
| 20260502013642 | 11 | 307 | 3.2 | 4.8 | 0.00 | 0.00 | 0.00 | 91 | 1019.8 |
| 20260502013541 | 11 | 300 | 3.2 | 4.8 | 0.00 | 0.00 | 0.00 | 91 | 1019.8 |
| 20260502013411 | 11 | 294 | 3.2 | 4.8 | 0.00 | 0.00 | 0.00 | 91 | 1019.8 |
| 20260502013311 | 11 | 298 | 3.2 | 4.8 | 0.00 | 0.00 | 0.00 | 91 | 1019.8 |
| 20260502013211 | 11 | 298 | 3.2 | 4.8 | 0.00 | 0.00 | 0.00 | 91 | 1019.8 |
| 20260502013111 | 11 | 298 | 3.2 | 4.8 | 0.00 | 0.00 | 0.00 | 91 | 1019.8 |
| 20260502013011 | 11 | 297 | 3.2 | 4.8 | 0.00 | 0.00 | 0.00 | 91 | 1019.8 |
| 20260502012911 | 11 | 293 | 3.2 | 4.8 | 0.00 | 0.00 | 0.00 | 91 | 1019.8 |
| 20260502012811 | 11 | 291 | 1.6 | 3.2 | 0.00 | 0.00 | 0.00 | 91 | 1019.8 |
| 20260502012711 | 11 | 286 | 1.6 | 3.2 | 0.00 | 0.00 | 0.00 | 91 | 1019.9 |
| 20260502012611 | 11 | 286 | 1.6 | 3.2 | 0.00 | 0.00 | 0.00 | 91 | 1019.8 |
| 20260502012511 | 11 | 300 | 1.6 | 3.2 | 0.00 | 0.00 | 0.00 | 91 | 1019.8 |
| 20260502012411 | 11 | 303 | 3.2 | 3.2 | 0.00 | 0.00 | 0.00 | 91 | 1019.8 |
| 20260502012311 | 11 | 304 | 3.2 | 3.2 | 0.00 | 0.00 | 0.00 | 91 | 1019.8 |
| 20260502012210 | 11 | 293 | 1.6 | 3.2 | 0.00 | 0.00 | 0.00 | 91 | 1019.8 |
| 20260502012110 | 11 | 283 | 1.6 | 3.2 | 0.00 | 0.00 | 0.00 | 91 | 1019.9 |
| 20260502012010 | 11 | 279 | 1.6 | 3.2 | 0.00 | 0.00 | 0.00 | 91 | 1019.9 |
| 20260502011910 | 11 | 273 | 1.6 | 3.2 | 0.00 | 0.00 | 0.00 | 91 | 1019.9 |
| 20260502011810 | 11 | 272 | 1.6 | 1.6 | 0.00 | 0.00 | 0.00 | 91 | 1019.9 |
| 20260502011710 | 11 | 272 | 3.2 | 3.2 | 0.00 | 0.00 | 0.00 | 91 | 1019.9 |
| 20260502011610 | 11 | 281 | 3.2 | 4.8 | 0.00 | 0.00 | 0.00 | 91 | 1019.9 |
| 20260502011510 | 11 | 290 | 1.6 | 4.8 | 0.00 | 0.00 | 0.00 | 91 | 1019.9 |
| 20260502011410 | 11 | 292 | 1.6 | 3.2 | 0.00 | 0.00 | 0.00 | 91 | 1019.9 |
| 20260502011310 | 11 | 289 | 3.2 | 4.8 | 0.00 | 0.00 | 0.00 | 91 | 1019.9 |
| 20260502011210 | 11 | 287 | 3.2 | 4.8 | 0.00 | 0.00 | 0.00 | 91 | 1019.9 |
| 20260502011110 | 11 | 285 | 3.2 | 4.8 | 0.00 | 0.00 | 0.00 | 91 | 1019.9 |
| 20260502011010 | 11 | 281 | 1.6 | 4.8 | 0.00 | 0.00 | 0.00 | 91 | 1019.8 |
| 20260502010910 | 11 | 280 | 3.2 | 4.8 | 0.00 | 0.00 | 0.00 | 91 | 1019.9 |
| 20260502010810 | 11 | 274 | 3.2 | 4.8 | 0.00 | 0.00 | 0.00 | 91 | 1019.9 |
| 20260502010710 | 11 | 282 | 4.8 | 4.8 | 0.00 | 0.00 | 0.00 | 91 | 1019.8 |
| 20260502010610 | 11 | 275 | 4.8 | 4.8 | 0.00 | 0.00 | 0.00 | 91 | 1019.9 |
| 20260502010509 | 11 | 290 | 3.2 | 4.8 | 0.00 | 0.00 | 0.00 | 91 | 1019.9 |
| 20260502010409 | 11 | 284 | 4.8 | 4.8 | 0.00 | 0.00 | 0.00 | 91 | 1019.9 |
| 20260502010309 | 11 | 289 | 4.8 | 4.8 | 0.00 | 0.00 | 0.00 | 91 | 1019.9 |
| 20260502010209 | 11 | 282 | 4.8 | 4.8 | 0.00 | 0.00 | 0.00 | 91 | 1019.9 |
| 20260502010109 | 11 | 287 | 4.8 | 8.0 | 0.00 | 0.00 | 0.00 | 91 | 1019.9 |
| 20260502010009 | 11 | 285 | 8.0 | 9.7 | 0.00 | 0.00 | 0.00 | 91 | 1019.9 |
| 20260502005909 | 11 | 278 | 4.8 | 9.7 | 0.00 | 0.00 | 0.00 | 91 | 1019.9 |
| 20260502005809 | 11 | 283 | 4.8 | 4.8 | 0.00 | 0.00 | 0.00 | 91 | 1019.9 |
| 20260502005709 | 11 | 274 | 4.8 | 8.0 | 0.00 | 0.00 | 0.00 | 91 | 1019.9 |
| 20260502005609 | 11 | 280 | 4.8 | 8.0 | 0.00 | 0.00 | 0.00 | 91 | 1019.9 |
| 20260502005509 | 11 | 273 | 3.2 | 8.0 | 0.00 | 0.00 | 0.00 | 91 | 1019.9 |
| 20260502005409 | 11 | 271 | 3.2 | 4.8 | 0.00 | 0.00 | 0.00 | 91 | 1020.0 |
| 20260502005309 | 11 | 272 | 3.2 | 4.8 | 0.00 | 0.00 | 0.00 | 91 | 1020.0 |
| 20260502005208 | 11 | 268 | 3.2 | 4.8 | 0.00 | 0.00 | 0.00 | 91 | 1020.0 |
| 20260502005108 | 11 | 254 | 1.6 | 3.2 | 0.00 | 0.00 | 0.00 | 91 | 1020.0 |
| 20260502005008 | 11 | 255 | 3.2 | 3.2 | 0.00 | 0.00 | 0.00 | 91 | 1020.0 |
| 20260502004909 | 11 | 249 | 3.2 | 4.8 | 0.00 | 0.00 | 0.00 | 91 | 1020.1 |
| 20260502004808 | 11 | 256 | 3.2 | 4.8 | 0.00 | 0.00 | 0.00 | 91 | 1020.0 |
| 20260502004708 | 11 | 259 | 1.6 | 8.0 | 0.00 | 0.00 | 0.00 | 91 | 1020.0 |
| 20260502004608 | 11 | 261 | 1.6 | 3.2 | 0.00 | 0.00 | 0.00 | 91 | 1020.0 |
| 20260502004508 | 11 | 262 | 3.2 | 3.2 | 0.00 | 0.00 | 0.00 | 91 | 1020.0 |
| 20260502004408 | 11 | 243 | 4.8 | 8.0 | 0.00 | 0.00 | 0.00 | 91 | 1020.0 |
| 20260502004308 | 11 | 263 | 4.8 | 8.0 | 0.00 | 0.00 | 0.00 | 91 | 1020.0 |
| 20260502004208 | 11 | 265 | 4.8 | 8.0 | 0.00 | 0.00 | 0.00 | 91 | 1020.0 |
| 20260502004108 | 11 | 267 | 4.8 | 9.7 | 0.00 | 0.00 | 0.00 | 91 | 1020.0 |
| 20260502004008 | 11 | 268 | 4.8 | 11.3 | 0.00 | 0.00 | 0.00 | 91 | 1020.0 |
| 20260502003907 | 11 | 269 | 4.8 | 8.0 | 0.00 | 0.00 | 0.00 | 91 | 1020.0 |
| 20260502003807 | 11 | 275 | 8.0 | 9.7 | 0.00 | 0.00 | 0.00 | 91 | 1020.0 |
| 20260502003707 | 11 | 282 | 8.0 | 9.7 | 0.00 | 0.00 | 0.00 | 91 | 1020.0 |
| 20260502003607 | 11 | 270 | 8.0 | 9.7 | 0.00 | 0.00 | 0.00 | 91 | 1020.0 |
| 20260502003507 | 11 | 266 | 8.0 | 11.3 | 0.00 | 0.00 | 0.00 | 91 | 1020.0 |
| 20260502003407 | 11 | 277 | 4.8 | 9.7 | 0.00 | 0.00 | 0.00 | 91 | 1020.0 |
| 20260502003307 | 11 | 265 | 8.0 | 9.7 | 0.00 | 0.00 | 0.00 | 91 | 1020.0 |
| 20260502003207 | 11 | 275 | 4.8 | 8.0 | 0.00 | 0.00 | 0.00 | 91 | 1020.0 |
| 20260502003107 | 11 | 261 | 8.0 | 11.3 | 0.00 | 0.00 | 0.00 | 91 | 1020.0 |
| 20260502003007 | 11 | 256 | 4.8 | 9.7 | 0.00 | 0.00 | 0.00 | 91 | 1020.0 |
| 20260502002907 | 11 | 254 | 8.0 | 9.7 | 0.00 | 0.00 | 0.00 | 91 | 1020.0 |
| 20260502002807 | 11 | 257 | 4.8 | 9.7 | 0.00 | 0.00 | 0.00 | 91 | 1020.1 |
| 20260502002707 | 11 | 247 | 3.2 | 4.8 | 0.00 | 0.00 | 0.00 | 91 | 1020.1 |
| 20260502002607 | 11 | 249 | 4.8 | 9.7 | 0.00 | 0.00 | 0.00 | 91 | 1020.1 |
| 20260502002507 | 11 | 256 | 4.8 | 8.0 | 0.00 | 0.00 | 0.00 | 91 | 1020.1 |
| 20260502002406 | 11 | 256 | 4.8 | 9.7 | 0.00 | 0.00 | 0.00 | 91 | 1020.1 |
| 20260502002306 | 11 | 254 | 4.8 | 11.3 | 0.00 | 0.00 | 0.00 | 91 | 1020.1 |
| 20260502002206 | 11 | 248 | 8.0 | 9.7 | 0.00 | 0.00 | 0.00 | 91 | 1020.1 |
| 20260502002106 | 11 | 261 | 4.8 | 11.3 | 0.00 | 0.00 | 0.00 | 91 | 1020.1 |
| 20260502002006 | 11 | 267 | 8.0 | 11.3 | 0.00 | 0.00 | 0.00 | 91 | 1020.1 |
| 20260502001906 | 11 | 260 | 8.0 | 9.7 | 0.00 | 0.00 | 0.00 | 91 | 1020.2 |
| 20260502001806 | 11 | 255 | 8.0 | 9.7 | 0.00 | 0.00 | 0.00 | 91 | 1020.2 |
| 20260502001706 | 11 | 253 | 4.8 | 11.3 | 0.00 | 0.00 | 0.00 | 91 | 1020.2 |
| 20260502001606 | 11 | 254 | 4.8 | 9.7 | 0.00 | 0.00 | 0.00 | 91 | 1020.2 |
| 20260502001506 | 11 | 244 | 4.8 | 8.0 | 0.00 | 0.00 | 0.00 | 91 | 1020.2 |
| 20260502001336 | 11 | 256 | 4.8 | 9.7 | 0.00 | 0.00 | 0.00 | 91 | 1020.2 |
| 20260502001236 | 11 | 251 | 4.8 | 4.8 | 0.00 | 0.00 | 0.00 | 91 | 1020.3 |
| 20260502001106 | 11 | 263 | 3.2 | 8.0 | 0.00 | 0.00 | 0.00 | 91 | 1020.3 |
| 20260502000936 | 11 | 256 | 8.0 | 9.7 | 0.00 | 0.00 | 0.00 | 91 | 1020.3 |
| 20260502000836 | 11 | 251 | 8.0 | 12.9 | 0.00 | 0.00 | 0.00 | 91 | 1020.3 |
| 20260502000736 | 11 | 251 | 8.0 | 11.3 | 0.00 | 0.00 | 0.00 | 91 | 1020.3 |
| 20260502000606 | 11 | 252 | 8.0 | 11.3 | 0.00 | 0.00 | 0.00 | 91 | 1020.3 |
| 20260502000506 | 11 | 253 | 8.0 | 11.3 | 0.00 | 0.00 | 0.00 | 91 | 1020.3 |
| 20260502000406 | 11 | 257 | 8.0 | 12.9 | 0.00 | 0.00 | 0.00 | 91 | 1020.3 |
| 20260502000306 | 11 | 255 | 8.0 | 9.7 | 0.00 | 0.00 | 0.00 | 91 | 1020.3 |
| 20260502000136 | 11 | 259 | 8.0 | 8.0 | 0.00 | 0.00 | 0.00 | 91 | 1020.3 |
| 20260502000036 | 11 | 255 | 4.8 | 11.3 | 0.00 | 0.00 | 0.00 | 91 | 1020.3 |
| 20260501235936 | 11 | 266 | 8.0 | 9.7 | 0.00 | 0.00 | 0.00 | 91 | 1020.3 |
| 20260501235836 | 11 | 256 | 4.8 | 12.9 | 0.00 | 0.00 | 0.00 | 91 | 1020.3 |
| 20260501235736 | 11 | 266 | 4.8 | 8.0 | 0.00 | 0.00 | 0.00 | 91 | 1020.3 |
| 20260501235606 | 11 | 248 | 4.8 | 9.7 | 0.00 | 0.00 | 0.00 | 91 | 1020.3 |
| 20260501235436 | 11 | 248 | 4.8 | 8.0 | 0.00 | 0.00 | 0.00 | 91 | 1020.3 |
| 20260501235306 | 11 | 253 | 4.8 | 4.8 | 0.00 | 0.00 | 0.00 | 91 | 1020.3 |
| 20260501235136 | 11 | 255 | 8.0 | 8.0 | 0.00 | 0.00 | 0.00 | 91 | 1020.4 |
| 20260501235006 | 11 | 258 | 4.8 | 12.9 | 0.00 | 0.00 | 0.00 | 91 | 1020.4 |
| 20260501234906 | 11 | 251 | 4.8 | 8.0 | 0.00 | 0.00 | 0.00 | 91 | 1020.4 |
| 20260501234806 | 11 | 264 | 4.8 | 9.7 | 0.00 | 0.00 | 0.00 | 91 | 1020.4 |
| 20260501234706 | 11 | 251 | 3.2 | 8.0 | 0.00 | 0.00 | 0.00 | 91 | 1020.4 |
| 20260501234536 | 11 | 231 | 4.8 | 4.8 | 0.00 | 0.00 | 0.00 | 91 | 1020.5 |
| 20260501234406 | 11 | 258 | 4.8 | 9.7 | 0.00 | 0.00 | 0.00 | 91 | 1020.4 |
| 20260501234306 | 11 | 229 | 3.2 | 4.8 | 0.00 | 0.00 | 0.00 | 91 | 1020.4 |
| 20260501234206 | 11 | 229 | 3.2 | 4.8 | 0.00 | 0.00 | 0.00 | 91 | 1020.5 |
| 20260501234106 | 11 | 242 | 3.2 | 4.8 | 0.00 | 0.00 | 0.00 | 91 | 1020.5 |
| 20260501234006 | 11 | 258 | 4.8 | 8.0 | 0.00 | 0.00 | 0.00 | 91 | 1020.5 |
| 20260501233906 | 11 | 252 | 3.2 | 4.8 | 0.00 | 0.00 | 0.00 | 91 | 1020.5 |
| 20260501233736 | 11 | 269 | 4.8 | 8.0 | 0.00 | 0.00 | 0.00 | 91 | 1020.6 |
| 20260501233606 | 11 | 239 | 3.2 | 4.8 | 0.00 | 0.00 | 0.00 | 91 | 1020.6 |
| 20260501233506 | 11 | 253 | 3.2 | 8.0 | 0.00 | 0.00 | 0.00 | 91 | 1020.5 |
| 20260501233406 | 11 | 245 | 3.2 | 8.0 | 0.00 | 0.00 | 0.00 | 91 | 1020.6 |
| 20260501233306 | 11 | 248 | 3.2 | 4.8 | 0.00 | 0.00 | 0.00 | 91 | 1020.6 |
| 20260501233206 | 11 | 257 | 4.8 | 4.8 | 0.00 | 0.00 | 0.00 | 91 | 1020.6 |
| 20260501233036 | 11 | 250 | 4.8 | 8.0 | 0.00 | 0.00 | 0.00 | 91 | 1020.6 |
| 20260501232936 | 11 | 253 | 3.2 | 8.0 | 0.00 | 0.00 | 0.00 | 91 | 1020.6 |
| 20260501232806 | 11 | 267 | 3.2 | 4.8 | 0.00 | 0.00 | 0.00 | 91 | 1020.6 |
| 20260501232636 | 11 | 233 | 3.2 | 4.8 | 0.00 | 0.00 | 0.00 | 91 | 1020.6 |
| 20260501232536 | 11 | 253 | 3.2 | 4.8 | 0.00 | 0.00 | 0.00 | 91 | 1020.6 |
| 20260501232406 | 11 | 229 | 3.2 | 4.8 | 0.00 | 0.00 | 0.00 | 91 | 1020.6 |
| 20260501232306 | 11 | 265 | 4.8 | 4.8 | 0.00 | 0.00 | 0.00 | 91 | 1020.6 |
| 20260501232206 | 11 | 251 | 3.2 | 4.8 | 0.00 | 0.00 | 0.00 | 91 | 1020.6 |
| 20260501232106 | 11 | 237 | 3.2 | 8.0 | 0.00 | 0.00 | 0.00 | 91 | 1020.6 |
| 20260501231936 | 11 | 263 | 4.8 | 9.7 | 0.00 | 0.00 | 0.00 | 91 | 1020.6 |
| 20260501231806 | 11 | 243 | 4.8 | 8.0 | 0.00 | 0.00 | 0.00 | 91 | 1020.6 |
| 20260501231706 | 11 | 253 | 3.2 | 4.8 | 0.00 | 0.00 | 0.00 | 91 | 1020.6 |
| 20260501231606 | 11 | 241 | 4.8 | 8.0 | 0.00 | 0.00 | 0.00 | 91 | 1020.6 |
| 20260501231506 | 11 | 262 | 8.0 | 8.0 | 0.00 | 0.00 | 0.00 | 91 | 1020.6 |
| 20260501231336 | 11 | 236 | 4.8 | 11.3 | 0.00 | 0.00 | 0.00 | 91 | 1020.6 |
| 20260501231206 | 11 | 256 | 8.0 | 9.7 | 0.00 | 0.00 | 0.00 | 91 | 1020.6 |
| 20260501231106 | 11 | 251 | 3.2 | 9.7 | 0.00 | 0.00 | 0.00 | 91 | 1020.6 |
| 20260501231006 | 11 | 244 | 3.2 | 3.2 | 0.00 | 0.00 | 0.00 | 91 | 1020.7 |
| 20260501230906 | 11 | 251 | 4.8 | 8.0 | 0.00 | 0.00 | 0.00 | 91 | 1020.6 |
| 20260501230806 | 11 | 242 | 4.8 | 9.7 | 0.00 | 0.00 | 0.00 | 91 | 1020.7 |
| 20260501230636 | 11 | 238 | 3.2 | 9.7 | 0.00 | 0.00 | 0.00 | 91 | 1020.6 |
| 20260501230536 | 11 | 262 | 4.8 | 4.8 | 0.00 | 0.00 | 0.00 | 91 | 1020.6 |
| 20260501230406 | 11 | 260 | 4.8 | 8.0 | 0.00 | 0.00 | 0.00 | 91 | 1020.7 |
| 20260501230236 | 11 | 261 | 3.2 | 8.0 | 0.00 | 0.00 | 0.00 | 91 | 1020.7 |
| 20260501230136 | 11 | 252 | 8.0 | 8.0 | 0.00 | 0.00 | 0.00 | 91 | 1020.7 |
| 20260501230036 | 11 | 263 | 8.0 | 11.3 | 0.00 | 0.00 | 0.00 | 91 | 1020.7 |
| 20260501225936 | 11 | 245 | 8.0 | 11.3 | 0.00 | 0.00 | 0.00 | 91 | 1020.7 |
| 20260501225806 | 11 | 255 | 8.0 | 11.3 | 0.00 | 0.00 | 0.00 | 91 | 1020.7 |
| 20260501225636 | 11 | 253 | 8.0 | 11.3 | 0.00 | 0.00 | 0.00 | 91 | 1020.7 |
| 20260501225506 | 11 | 255 | 4.8 | 11.3 | 0.00 | 0.00 | 0.00 | 91 | 1020.7 |
| 20260501225406 | 11 | 237 | 4.8 | 8.0 | 0.00 | 0.00 | 0.00 | 91 | 1020.7 |
| 20260501225306 | 11 | 256 | 8.0 | 11.3 | 0.00 | 0.00 | 0.00 | 91 | 1020.7 |
| 20260501225136 | 11 | 258 | 4.8 | 8.0 | 0.00 | 0.00 | 0.00 | 91 | 1020.8 |
| 20260501225036 | 11 | 255 | 8.0 | 12.9 | 0.00 | 0.00 | 0.00 | 91 | 1020.7 |
| 20260501224906 | 11 | 254 | 4.8 | 9.7 | 0.00 | 0.00 | 0.00 | 91 | 1020.8 |
| 20260501224806 | 11 | 246 | 8.0 | 12.9 | 0.00 | 0.00 | 0.00 | 91 | 1020.7 |
| 20260501224706 | 11 | 252 | 8.0 | 11.3 | 0.00 | 0.00 | 0.00 | 91 | 1020.8 |
| 20260501224536 | 11 | 261 | 8.0 | 9.7 | 0.00 | 0.00 | 0.00 | 91 | 1020.7 |
| 20260501224436 | 11 | 265 | 8.0 | 16.1 | 0.00 | 0.00 | 0.00 | 91 | 1020.8 |
| 20260501224336 | 11 | 251 | 9.7 | 14.5 | 0.00 | 0.00 | 0.00 | 91 | 1020.8 |
| 20260501224205 | 11 | 252 | 4.8 | 14.5 | 0.00 | 0.00 | 0.00 | 91 | 1020.7 |
| 20260501224105 | 11 | 229 | 4.8 | 11.3 | 0.00 | 0.00 | 0.00 | 91 | 1020.7 |
| 20260501224005 | 11 | 240 | 4.8 | 9.7 | 0.00 | 0.00 | 0.00 | 91 | 1020.7 |
| 20260501223905 | 11 | 216 | 3.2 | 9.7 | 0.00 | 0.00 | 0.00 | 91 | 1020.7 |
| 20260501223806 | 11 | 256 | 3.2 | 4.8 | 0.00 | 0.00 | 0.00 | 91 | 1020.7 |
| 20260501223705 | 11 | 235 | 3.2 | 4.8 | 0.00 | 0.00 | 0.00 | 91 | 1020.7 |
| 20260501223535 | 11 | 255 | 4.8 | 11.3 | 0.00 | 0.00 | 0.00 | 91 | 1020.7 |
| 20260501223436 | 11 | 255 | 8.0 | 9.7 | 0.00 | 0.00 | 0.00 | 91 | 1020.7 |
| 20260501223305 | 11 | 252 | 8.0 | 12.9 | 0.00 | 0.00 | 0.00 | 91 | 1020.8 |
| 20260501223135 | 11 | 231 | 3.2 | 9.7 | 0.00 | 0.00 | 0.00 | 91 | 1020.7 |
| 20260501223035 | 11 | 217 | 4.8 | 4.8 | 0.00 | 0.00 | 0.00 | 91 | 1020.8 |
| 20260501222935 | 11 | 250 | 8.0 | 8.0 | 0.00 | 0.00 | 0.00 | 91 | 1020.8 |
| 20260501222835 | 11 | 256 | 4.8 | 9.7 | 0.00 | 0.00 | 0.00 | 91 | 1020.8 |
| 20260501222735 | 11 | 241 | 4.8 | 12.9 | 0.00 | 0.00 | 0.00 | 91 | 1020.8 |
| 20260501222635 | 11 | 227 | 3.2 | 4.8 | 0.00 | 0.00 | 0.00 | 91 | 1020.8 |
| 20260501222535 | 11 | 220 | 4.8 | 4.8 | 0.00 | 0.00 | 0.00 | 91 | 1020.8 |
| 20260501222405 | 11 | 237 | 4.8 | 9.7 | 0.00 | 0.00 | 0.00 | 91 | 1020.8 |
| 20260501222306 | 11 | 241 | 4.8 | 4.8 | 0.00 | 0.00 | 0.00 | 91 | 1020.8 |
| 20260501222205 | 11 | 257 | 9.7 | 12.9 | 0.00 | 0.00 | 0.00 | 91 | 1020.8 |
| 20260501222035 | 11 | 252 | 8.0 | 4.8 | 0.00 | 0.00 | 0.00 | 91 | 1020.9 |
| 20260501221935 | 11 | 263 | 8.0 | 9.7 | 0.00 | 0.00 | 0.00 | 91 | 1020.9 |
| 20260501221835 | 11 | 254 | 4.8 | 9.7 | 0.00 | 0.00 | 0.00 | 91 | 1020.9 |
| 20260501221735 | 11 | 213 | 3.2 | 4.8 | 0.00 | 0.00 | 0.00 | 91 | 1020.9 |
| 20260501221635 | 11 | 260 | 4.8 | 9.7 | 0.00 | 0.00 | 0.00 | 91 | 1020.9 |
| 20260501221505 | 11 | 229 | 8.0 | 11.3 | 0.00 | 0.00 | 0.00 | 91 | 1020.9 |
| 20260501221405 | 11 | 234 | 4.8 | 12.9 | 0.00 | 0.00 | 0.00 | 91 | 1020.9 |
| 20260501221305 | 11 | 219 | 3.2 | 8.0 | 0.00 | 0.00 | 0.00 | 91 | 1020.9 |
| 20260501221205 | 11 | 256 | 4.8 | 8.0 | 0.00 | 0.00 | 0.00 | 91 | 1020.9 |
| 20260501221035 | 11 | 212 | 3.2 | 4.8 | 0.00 | 0.00 | 0.00 | 91 | 1020.9 |
| 20260501220935 | 11 | 214 | 3.2 | 4.8 | 0.00 | 0.00 | 0.00 | 91 | 1021.0 |
| 20260501220805 | 11 | 243 | 8.0 | 11.3 | 0.00 | 0.00 | 0.00 | 91 | 1021.0 |
| 20260501220635 | 11 | 203 | 4.8 | 8.0 | 0.00 | 0.00 | 0.00 | 91 | 1020.9 |
| 20260501220505 | 11 | 228 | 4.8 | 4.8 | 0.00 | 0.00 | 0.00 | 91 | 1020.9 |
| 20260501220335 | 11 | 234 | 8.0 | 11.3 | 0.00 | 0.00 | 0.00 | 91 | 1020.9 |
| 20260501220205 | 11 | 260 | 4.8 | 9.7 | 0.00 | 0.00 | 0.00 | 91 | 1021.0 |
| 20260501220105 | 11 | 253 | 4.8 | 12.9 | 0.00 | 0.00 | 0.00 | 91 | 1021.0 |
| 20260501220005 | 11 | 223 | 3.2 | 8.0 | 0.00 | 0.00 | 0.00 | 91 | 1021.0 |
| 20260501215905 | 11 | 234 | 3.2 | 8.0 | 0.00 | 0.00 | 0.00 | 91 | 1021.0 |
| 20260501215735 | 11 | 218 | 4.8 | 11.3 | 0.00 | 0.00 | 0.00 | 91 | 1021.0 |
| 20260501215605 | 11 | 230 | 8.0 | 11.3 | 0.00 | 0.00 | 0.00 | 91 | 1020.9 |
| 20260501215505 | 11 | 240 | 8.0 | 12.9 | 0.00 | 0.00 | 0.00 | 91 | 1021.0 |
| 20260501215405 | 11 | 254 | 9.7 | 12.9 | 0.00 | 0.00 | 0.00 | 91 | 1021.0 |
| 20260501215235 | 11 | 227 | 4.8 | 9.7 | 0.00 | 0.00 | 0.00 | 91 | 1021.0 |
| 20260501215135 | 11 | 238 | 8.0 | 11.3 | 0.00 | 0.00 | 0.00 | 91 | 1021.0 |
| 20260501215005 | 11 | 259 | 8.0 | 11.3 | 0.00 | 0.00 | 0.00 | 91 | 1020.9 |
| 20260501214835 | 11 | 259 | 4.8 | 9.7 | 0.00 | 0.00 | 0.00 | 91 | 1021.0 |
| 20260501214736 | 11 | 241 | 4.8 | 9.7 | 0.00 | 0.00 | 0.00 | 91 | 1021.0 |
| 20260501214635 | 11 | 246 | 4.8 | 9.7 | 0.00 | 0.00 | 0.00 | 91 | 1021.0 |
| 20260501214505 | 11 | 211 | 8.0 | 8.0 | 0.00 | 0.00 | 0.00 | 91 | 1021.0 |
| 20260501214405 | 11 | 221 | 8.0 | 12.9 | 0.00 | 0.00 | 0.00 | 91 | 1020.9 |
| 20260501214305 | 11 | 237 | 8.0 | 9.7 | 0.00 | 0.00 | 0.00 | 91 | 1021.0 |
| 20260501214205 | 11 | 245 | 9.7 | 12.9 | 0.00 | 0.00 | 0.00 | 91 | 1020.9 |
| 20260501214035 | 11 | 239 | 8.0 | 4.8 | 0.00 | 0.00 | 0.00 | 91 | 1021.0 |
| 20260501213935 | 11 | 254 | 4.8 | 12.9 | 0.00 | 0.00 | 0.00 | 91 | 1021.0 |
| 20260501213835 | 11 | 263 | 4.8 | 9.7 | 0.00 | 0.00 | 0.00 | 91 | 1020.9 |
| 20260501213705 | 11 | 249 | 3.2 | 8.0 | 0.00 | 0.00 | 0.00 | 91 | 1020.9 |
| 20260501213605 | 11 | 222 | 4.8 | 4.8 | 0.00 | 0.00 | 0.00 | 91 | 1020.9 |
| 20260501213505 | 11 | 267 | 8.0 | 14.5 | 0.00 | 0.00 | 0.00 | 91 | 1021.0 |
| 20260501213335 | 11 | 259 | 9.7 | 9.7 | 0.00 | 0.00 | 0.00 | 91 | 1020.9 |
| 20260501213235 | 11 | 254 | 9.7 | 12.9 | 0.00 | 0.00 | 0.00 | 91 | 1020.9 |
| 20260501213105 | 11 | 259 | 4.8 | 11.3 | 0.00 | 0.00 | 0.00 | 91 | 1020.9 |
| 20260501213005 | 11 | 231 | 4.8 | 9.7 | 0.00 | 0.00 | 0.00 | 91 | 1020.9 |
| 20260501212905 | 11 | 244 | 8.0 | 12.9 | 0.00 | 0.00 | 0.00 | 91 | 1020.9 |
| 20260501212735 | 11 | 265 | 11.3 | 19.3 | 0.00 | 0.00 | 0.00 | 91 | 1020.9 |
| 20260501212635 | 11 | 261 | 11.3 | 16.1 | 0.00 | 0.00 | 0.00 | 90 | 1020.9 |
| 20260501212535 | 11 | 263 | 11.3 | 14.5 | 0.00 | 0.00 | 0.00 | 90 | 1020.9 |
| 20260501212435 | 11 | 255 | 9.7 | 12.9 | 0.00 | 0.00 | 0.00 | 90 | 1021.0 |
| 20260501212335 | 11 | 256 | 9.7 | 12.9 | 0.00 | 0.00 | 0.00 | 90 | 1020.9 |
| 20260501212235 | 11 | 235 | 8.0 | 12.9 | 0.00 | 0.00 | 0.00 | 90 | 1021.0 |
| 20260501212135 | 11 | 238 | 4.8 | 11.3 | 0.00 | 0.00 | 0.00 | 90 | 1021.0 |
| 20260501212005 | 11 | 239 | 4.8 | 4.8 | 0.00 | 0.00 | 0.00 | 90 | 1021.0 |
| 20260501211905 | 11 | 259 | 11.3 | 16.1 | 0.00 | 0.00 | 0.00 | 90 | 1021.0 |
| 20260501211805 | 11 | 247 | 9.7 | 16.1 | 0.00 | 0.00 | 0.00 | 90 | 1021.0 |
| 20260501211635 | 11 | 250 | 11.3 | 14.5 | 0.00 | 0.00 | 0.00 | 90 | 1020.9 |
| 20260501211535 | 11 | 257 | 9.7 | 16.1 | 0.00 | 0.00 | 0.00 | 90 | 1021.0 |
| 20260501211405 | 11 | 227 | 9.7 | 12.9 | 0.00 | 0.00 | 0.00 | 90 | 1020.9 |
| 20260501211235 | 11 | 250 | 9.7 | 11.3 | 0.00 | 0.00 | 0.00 | 90 | 1021.0 |
| 20260501211105 | 11 | 231 | 9.7 | 12.9 | 0.00 | 0.00 | 0.00 | 90 | 1021.0 |
| 20260501211005 | 11 | 230 | 8.0 | 14.5 | 0.00 | 0.00 | 0.00 | 90 | 1020.9 |
| 20260501210905 | 11 | 211 | 4.8 | 11.3 | 0.00 | 0.00 | 0.00 | 90 | 1021.0 |
| 20260501210805 | 11 | 235 | 8.0 | 12.9 | 0.00 | 0.00 | 0.00 | 90 | 1021.0 |
| 20260501210635 | 11 | 249 | 4.8 | 8.0 | 0.00 | 0.00 | 0.00 | 90 | 1020.9 |
| 20260501210535 | 11 | 251 | 8.0 | 12.9 | 0.00 | 0.00 | 0.00 | 90 | 1020.9 |
| 20260501210405 | 11 | 242 | 4.8 | 8.0 | 0.00 | 0.00 | 0.00 | 90 | 1020.9 |
| 20260501210235 | 11 | 234 | 9.7 | 12.9 | 0.00 | 0.00 | 0.00 | 90 | 1020.9 |
| 20260501210135 | 11 | 216 | 8.0 | 12.9 | 0.00 | 0.00 | 0.00 | 90 | 1020.9 |
| 20260501210035 | 11 | 231 | 9.7 | 14.5 | 0.00 | 0.00 | 0.00 | 90 | 1020.9 |
| 20260501205935 | 11 | 245 | 8.0 | 12.9 | 0.00 | 0.00 | 0.00 | 90 | 1020.9 |
| 20260501205805 | 11 | 234 | 8.0 | 9.7 | 0.00 | 0.00 | 0.00 | 90 | 1020.9 |
| 20260501205705 | 11 | 209 | 8.0 | 11.3 | 0.00 | 0.00 | 0.00 | 90 | 1020.9 |
| 20260501205535 | 11 | 216 | 8.0 | 8.0 | 0.00 | 0.00 | 0.00 | 90 | 1020.9 |
| 20260501205435 | 11 | 224 | 9.7 | 12.9 | 0.00 | 0.00 | 0.00 | 90 | 1020.9 |
| 20260501205335 | 11 | 244 | 8.0 | 12.9 | 0.00 | 0.00 | 0.00 | 90 | 1020.9 |
| 20260501205205 | 11 | 223 | 11.3 | 12.9 | 0.00 | 0.00 | 0.00 | 90 | 1020.9 |
| 20260501205035 | 11 | 239 | 4.8 | 11.3 | 0.00 | 0.00 | 0.00 | 90 | 1020.9 |
| 20260501204905 | 11 | 224 | 8.0 | 11.3 | 0.00 | 0.00 | 0.00 | 90 | 1020.9 |
| 20260501204805 | 11 | 234 | 8.0 | 9.7 | 0.00 | 0.00 | 0.00 | 90 | 1020.9 |
| 20260501204635 | 11 | 219 | 4.8 | 9.7 | 0.00 | 0.00 | 0.00 | 90 | 1020.9 |
| 20260501204505 | 11 | 239 | 8.0 | 11.3 | 0.00 | 0.00 | 0.00 | 90 | 1020.9 |
| 20260501204335 | 11 | 225 | 8.0 | 9.7 | 0.00 | 0.00 | 0.00 | 89 | 1020.9 |
| 20260501204235 | 11 | 219 | 4.8 | 11.3 | 0.00 | 0.00 | 0.00 | 89 | 1020.9 |
| 20260501204135 | 11 | 221 | 3.2 | 9.7 | 0.00 | 0.00 | 0.00 | 89 | 1020.9 |
| 20260501204005 | 11 | 209 | 8.0 | 9.7 | 0.00 | 0.00 | 0.00 | 89 | 1020.9 |
| 20260501203835 | 11 | 233 | 8.0 | 11.3 | 0.00 | 0.00 | 0.00 | 89 | 1020.9 |
| 20260501203735 | 11 | 225 | 8.0 | 9.7 | 0.00 | 0.00 | 0.00 | 89 | 1020.9 |
| 20260501203635 | 11 | 239 | 4.8 | 9.7 | 0.00 | 0.00 | 0.00 | 89 | 1020.9 |
| 20260501203535 | 11 | 231 | 4.8 | 4.8 | 0.00 | 0.00 | 0.00 | 89 | 1020.9 |
| 20260501203435 | 11 | 218 | 4.8 | 8.0 | 0.00 | 0.00 | 0.00 | 89 | 1020.9 |
| 20260501203335 | 11 | 208 | 3.2 | 4.8 | 0.00 | 0.00 | 0.00 | 89 | 1020.9 |
| 20260501203235 | 11 | 203 | 4.8 | 4.8 | 0.00 | 0.00 | 0.00 | 89 | 1020.8 |
| 20260501203105 | 11 | 226 | 4.8 | 9.7 | 0.00 | 0.00 | 0.00 | 89 | 1020.8 |
| 20260501202935 | 11 | 211 | 3.2 | 8.0 | 0.00 | 0.00 | 0.00 | 89 | 1020.8 |
| 20260501202805 | 11 | 201 | 3.2 | 4.8 | 0.00 | 0.00 | 0.00 | 89 | 1020.7 |
| 20260501202705 | 11 | 206 | 4.8 | 4.8 | 0.00 | 0.00 | 0.00 | 89 | 1020.8 |
| 20260501202605 | 11 | 220 | 8.0 | 4.8 | 0.00 | 0.00 | 0.00 | 89 | 1020.7 |
| 20260501202435 | 11 | 220 | 4.8 | 4.8 | 0.00 | 0.00 | 0.00 | 89 | 1020.8 |
| 20260501202335 | 11 | 209 | 4.8 | 4.8 | 0.00 | 0.00 | 0.00 | 89 | 1020.8 |
| 20260501202235 | 11 | 211 | 4.8 | 8.0 | 0.00 | 0.00 | 0.00 | 89 | 1020.8 |
| 20260501202105 | 11 | 213 | 3.2 | 4.8 | 0.00 | 0.00 | 0.00 | 89 | 1020.8 |
| 20260501201935 | 11 | 207 | 3.2 | 4.8 | 0.00 | 0.00 | 0.00 | 89 | 1020.8 |
| 20260501201835 | 11 | 228 | 3.2 | 8.0 | 0.00 | 0.00 | 0.00 | 89 | 1020.7 |
| 20260501201735 | 11 | 234 | 4.8 | 4.8 | 0.00 | 0.00 | 0.00 | 89 | 1020.8 |
| 20260501201605 | 11 | 261 | 4.8 | 8.0 | 0.00 | 0.00 | 0.00 | 89 | 1020.8 |
| 20260501201435 | 11 | 237 | 3.2 | 4.8 | 0.00 | 0.00 | 0.00 | 89 | 1020.8 |
| 20260501201305 | 11 | 243 | 4.8 | 4.8 | 0.00 | 0.00 | 0.00 | 89 | 1020.8 |
| 20260501201205 | 11 | 257 | 1.6 | 4.8 | 0.00 | 0.00 | 0.00 | 89 | 1020.8 |
| 20260501201105 | 11 | 253 | 3.2 | 4.8 | 0.00 | 0.00 | 0.00 | 89 | 1020.8 |
| 20260501201005 | 11 | 261 | 3.2 | 8.0 | 0.00 | 0.00 | 0.00 | 89 | 1020.8 |
| 20260501200905 | 11 | 262 | 3.2 | 4.8 | 0.00 | 0.00 | 0.00 | 89 | 1020.8 |
| 20260501200805 | 11 | 258 | 3.2 | 4.8 | 0.00 | 0.00 | 0.00 | 89 | 1020.8 |
| 20260501200635 | 11 | 273 | 4.8 | 9.7 | 0.00 | 0.00 | 0.00 | 89 | 1020.7 |
| 20260501200535 | 11 | 256 | 8.0 | 9.7 | 0.00 | 0.00 | 0.00 | 89 | 1020.8 |
| 20260501200435 | 11 | 267 | 3.2 | 8.0 | 0.00 | 0.00 | 0.00 | 89 | 1020.7 |
| 20260501200335 | 11 | 264 | 4.8 | 8.0 | 0.00 | 0.00 | 0.00 | 89 | 1020.7 |
| 20260501200205 | 11 | 252 | 4.8 | 8.0 | 0.00 | 0.00 | 0.00 | 89 | 1020.7 |
| 20260501200105 | 11 | 278 | 4.8 | 4.8 | 0.00 | 0.00 | 0.00 | 89 | 1020.8 |
| 20260501200005 | 11 | 260 | 4.8 | 9.7 | 0.00 | 0.00 | 0.00 | 89 | 1020.7 |
| 20260501195835 | 11 | 269 | 3.2 | 4.8 | 0.00 | 0.00 | 0.00 | 89 | 1020.7 |
| 20260501195735 | 11 | 272 | 3.2 | 4.8 | 0.00 | 0.00 | 0.00 | 89 | 1020.7 |
| 20260501195635 | 11 | 271 | 3.2 | 4.8 | 0.00 | 0.00 | 0.00 | 89 | 1020.7 |
| 20260501195535 | 11 | 273 | 4.8 | 4.8 | 0.00 | 0.00 | 0.00 | 89 | 1020.7 |
| 20260501195435 | 11 | 252 | 4.8 | 11.3 | 0.00 | 0.00 | 0.00 | 89 | 1020.7 |
| 20260501195306 | 11 | 268 | 8.0 | 8.0 | 0.00 | 0.00 | 0.00 | 88 | 1020.7 |
| 20260501195135 | 11 | 275 | 4.8 | 8.0 | 0.00 | 0.00 | 0.00 | 88 | 1020.7 |
| 20260501195035 | 11 | 277 | 4.8 | 8.0 | 0.00 | 0.00 | 0.00 | 88 | 1020.7 |
| 20260501194935 | 11 | 280 | 4.8 | 9.7 | 0.00 | 0.00 | 0.00 | 88 | 1020.7 |
| 20260501194805 | 11 | 273 | 3.2 | 9.7 | 0.00 | 0.00 | 0.00 | 88 | 1020.7 |
| 20260501194705 | 11 | 280 | 4.8 | 4.8 | 0.00 | 0.00 | 0.00 | 88 | 1020.7 |
| 20260501194605 | 11 | 283 | 3.2 | 4.8 | 0.00 | 0.00 | 0.00 | 88 | 1020.7 |
| 20260501194505 | 11 | 257 | 3.2 | 4.8 | 0.00 | 0.00 | 0.00 | 88 | 1020.7 |
| 20260501194405 | 11 | 260 | 3.2 | 4.8 | 0.00 | 0.00 | 0.00 | 88 | 1020.7 |
| 20260501194305 | 11 | 266 | 3.2 | 8.0 | 0.00 | 0.00 | 0.00 | 88 | 1020.7 |
| 20260501194205 | 11 | 271 | 3.2 | 4.8 | 0.00 | 0.00 | 0.00 | 88 | 1020.7 |
| 20260501194035 | 11 | 274 | 4.8 | 8.0 | 0.00 | 0.00 | 0.00 | 88 | 1020.7 |
| 20260501193905 | 11 | 265 | 8.0 | 8.0 | 0.00 | 0.00 | 0.00 | 88 | 1020.7 |
| 20260501193735 | 11 | 274 | 4.8 | 4.8 | 0.00 | 0.00 | 0.00 | 88 | 1020.7 |
| 20260501193605 | 11 | 271 | 4.8 | 8.0 | 0.00 | 0.00 | 0.00 | 88 | 1020.7 |
| 20260501193435 | 11 | 258 | 3.2 | 4.8 | 0.00 | 0.00 | 0.00 | 88 | 1020.7 |
| 20260501193305 | 11 | 273 | 4.8 | 4.8 | 0.00 | 0.00 | 0.00 | 88 | 1020.7 |
| 20260501193205 | 11 | 277 | 4.8 | 8.0 | 0.00 | 0.00 | 0.00 | 88 | 1020.7 |
| 20260501193035 | 11 | 285 | 3.2 | 8.0 | 0.00 | 0.00 | 0.00 | 88 | 1020.7 |
| 20260501192905 | 11 | 286 | 3.2 | 4.8 | 0.00 | 0.00 | 0.00 | 88 | 1020.7 |
| 20260501192735 | 11 | 296 | 4.8 | 4.8 | 0.00 | 0.00 | 0.00 | 88 | 1020.7 |
| 20260501192605 | 11 | 292 | 4.8 | 8.0 | 0.00 | 0.00 | 0.00 | 88 | 1020.7 |
| 20260501192505 | 11 | 300 | 4.8 | 4.8 | 0.00 | 0.00 | 0.00 | 87 | 1020.7 |
| 20260501192405 | 11 | 299 | 3.2 | 8.0 | 0.00 | 0.00 | 0.00 | 87 | 1020.6 |
| 20260501192235 | 11 | 285 | 4.8 | 9.7 | 0.00 | 0.00 | 0.00 | 87 | 1020.6 |
| 20260501192105 | 11 | 287 | 4.8 | 8.0 | 0.00 | 0.00 | 0.00 | 87 | 1020.6 |
| 20260501192005 | 11 | 277 | 3.2 | 8.0 | 0.00 | 0.00 | 0.00 | 87 | 1020.7 |
| 20260501191905 | 11 | 288 | 3.2 | 4.8 | 0.00 | 0.00 | 0.00 | 87 | 1020.7 |
| 20260501191805 | 11 | 277 | 4.8 | 8.0 | 0.00 | 0.00 | 0.00 | 87 | 1020.6 |
| 20260501191705 | 11 | 279 | 4.8 | 9.7 | 0.00 | 0.00 | 0.00 | 87 | 1020.7 |
| 20260501191605 | 11 | 270 | 4.8 | 4.8 | 0.00 | 0.00 | 0.00 | 87 | 1020.6 |
| 20260501191435 | 11 | 266 | 4.8 | 8.0 | 0.00 | 0.00 | 0.00 | 87 | 1020.6 |
| 20260501191335 | 11 | 266 | 4.8 | 8.0 | 0.00 | 0.00 | 0.00 | 87 | 1020.6 |
| 20260501191235 | 11 | 250 | 4.8 | 9.7 | 0.00 | 0.00 | 0.00 | 87 | 1020.6 |
| 20260501191135 | 11 | 271 | 4.8 | 8.0 | 0.00 | 0.00 | 0.00 | 87 | 1020.6 |
| 20260501191035 | 11 | 265 | 4.8 | 8.0 | 0.00 | 0.00 | 0.00 | 87 | 1020.6 |
| 20260501190935 | 11 | 275 | 4.8 | 11.3 | 0.00 | 0.00 | 0.00 | 87 | 1020.6 |
| 20260501190835 | 11 | 269 | 4.8 | 4.8 | 0.00 | 0.00 | 0.00 | 87 | 1020.6 |
| 20260501190705 | 11 | 274 | 4.8 | 8.0 | 0.00 | 0.00 | 0.00 | 87 | 1020.6 |
| 20260501190605 | 11 | 276 | 3.2 | 4.8 | 0.00 | 0.00 | 0.00 | 87 | 1020.6 |
| 20260501190505 | 11 | 282 | 3.2 | 8.0 | 0.00 | 0.00 | 0.00 | 87 | 1020.6 |
| 20260501190405 | 11 | 285 | 4.8 | 4.8 | 0.00 | 0.00 | 0.00 | 87 | 1020.6 |
| 20260501190235 | 11 | 291 | 8.0 | 8.0 | 0.00 | 0.00 | 0.00 | 87 | 1020.6 |
| 20260501190135 | 11 | 277 | 4.8 | 8.0 | 0.00 | 0.00 | 0.00 | 86 | 1020.6 |
| 20260501190035 | 11 | 285 | 4.8 | 4.8 | 0.00 | 0.00 | 0.00 | 86 | 1020.6 |
| 20260501185935 | 11 | 292 | 4.8 | 8.0 | 0.00 | 0.00 | 0.00 | 86 | 1020.6 |
| 20260501185805 | 11 | 294 | 4.8 | 8.0 | 0.00 | 0.00 | 0.00 | 86 | 1020.6 |
| 20260501185705 | 11 | 301 | 4.8 | 8.0 | 0.00 | 0.00 | 0.00 | 86 | 1020.6 |
| 20260501185605 | 11 | 303 | 4.8 | 8.0 | 0.00 | 0.00 | 0.00 | 86 | 1020.6 |
| 20260501185505 | 11 | 296 | 4.8 | 8.0 | 0.00 | 0.00 | 0.00 | 86 | 1020.6 |
| 20260501185335 | 11 | 287 | 8.0 | 9.7 | 0.00 | 0.00 | 0.00 | 85 | 1020.6 |
| 20260501185235 | 11 | 281 | 4.8 | 9.7 | 0.00 | 0.00 | 0.00 | 86 | 1020.6 |
| 20260501185105 | 11 | 279 | 4.8 | 8.0 | 0.00 | 0.00 | 0.00 | 86 | 1020.6 |
| 20260501185005 | 11 | 292 | 3.2 | 8.0 | 0.00 | 0.00 | 0.00 | 85 | 1020.6 |
| 20260501184905 | 11 | 278 | 3.2 | 4.8 | 0.00 | 0.00 | 0.00 | 86 | 1020.5 |
| 20260501184735 | 12 | 290 | 4.8 | 4.8 | 0.00 | 0.00 | 0.00 | 85 | 1020.6 |
| 20260501184605 | 12 | 266 | 4.8 | 8.0 | 0.00 | 0.00 | 0.00 | 85 | 1020.6 |
| 20260501184505 | 12 | 285 | 3.2 | 4.8 | 0.00 | 0.00 | 0.00 | 85 | 1020.6 |
| 20260501184335 | 12 | 253 | 4.8 | 8.0 | 0.00 | 0.00 | 0.00 | 85 | 1020.6 |
| 20260501184235 | 12 | 264 | 3.2 | 8.0 | 0.00 | 0.00 | 0.00 | 85 | 1020.6 |
| 20260501184135 | 12 | 260 | 4.8 | 4.8 | 0.00 | 0.00 | 0.00 | 85 | 1020.6 |
| 20260501184005 | 12 | 279 | 4.8 | 4.8 | 0.00 | 0.00 | 0.00 | 85 | 1020.6 |
| 20260501183905 | 12 | 263 | 4.8 | 8.0 | 0.00 | 0.00 | 0.00 | 85 | 1020.6 |
| 20260501183805 | 12 | 263 | 3.2 | 8.0 | 0.00 | 0.00 | 0.00 | 85 | 1020.6 |
| 20260501183705 | 12 | 257 | 3.2 | 9.7 | 0.00 | 0.00 | 0.00 | 85 | 1020.6 |
| 20260501183535 | 12 | 270 | 4.8 | 9.7 | 0.00 | 0.00 | 0.00 | 85 | 1020.6 |
| 20260501183435 | 12 | 264 | 3.2 | 9.7 | 0.00 | 0.00 | 0.00 | 85 | 1020.5 |
| 20260501183305 | 12 | 263 | 4.8 | 4.8 | 0.00 | 0.00 | 0.00 | 85 | 1020.5 |
| 20260501183135 | 12 | 264 | 8.0 | 9.7 | 0.00 | 0.00 | 0.00 | 85 | 1020.5 |
| 20260501183035 | 12 | 271 | 4.8 | 9.7 | 0.00 | 0.00 | 0.00 | 85 | 1020.5 |
| 20260501182934 | 12 | 275 | 3.2 | 4.8 | 0.00 | 0.00 | 0.00 | 85 | 1020.5 |
| 20260501182835 | 12 | 271 | 3.2 | 4.8 | 0.00 | 0.00 | 0.00 | 85 | 1020.5 |
| 20260501182705 | 11 | 275 | 4.8 | 4.8 | 0.00 | 0.00 | 0.00 | 85 | 1020.5 |
| 20260501182535 | 11 | 277 | 4.8 | 8.0 | 0.00 | 0.00 | 0.00 | 85 | 1020.5 |
| 20260501182435 | 11 | 266 | 8.0 | 9.7 | 0.00 | 0.00 | 0.00 | 85 | 1020.5 |
| 20260501182306 | 11 | 275 | 4.8 | 11.3 | 0.00 | 0.00 | 0.00 | 85 | 1020.4 |
| 20260501182135 | 11 | 271 | 4.8 | 9.7 | 0.00 | 0.00 | 0.00 | 85 | 1020.5 |
| 20260501182035 | 11 | 275 | 4.8 | 8.0 | 0.00 | 0.00 | 0.00 | 85 | 1020.5 |
| 20260501181904 | 11 | 273 | 4.8 | 8.0 | 0.00 | 0.00 | 0.00 | 85 | 1020.5 |
| 20260501181735 | 12 | 264 | 8.0 | 8.0 | 0.00 | 0.00 | 0.00 | 84 | 1020.5 |
| 20260501181635 | 12 | 266 | 4.8 | 9.7 | 0.00 | 0.00 | 0.00 | 84 | 1020.5 |
| 20260501181504 | 12 | 270 | 4.8 | 9.7 | 0.00 | 0.00 | 0.00 | 84 | 1020.5 |
| 20260501181334 | 12 | 267 | 8.0 | 8.0 | 0.00 | 0.00 | 0.00 | 84 | 1020.5 |
| 20260501181234 | 12 | 278 | 8.0 | 11.3 | 0.00 | 0.00 | 0.00 | 84 | 1020.6 |
| 20260501181104 | 12 | 262 | 4.8 | 8.0 | 0.00 | 0.00 | 0.00 | 84 | 1020.6 |
| 20260501181004 | 12 | 263 | 4.8 | 8.0 | 0.00 | 0.00 | 0.00 | 84 | 1020.6 |
| 20260501180834 | 12 | 258 | 3.2 | 4.8 | 0.00 | 0.00 | 0.00 | 84 | 1020.6 |
| 20260501180704 | 12 | 219 | 4.8 | 4.8 | 0.00 | 0.00 | 0.00 | 83 | 1020.6 |
| 20260501180604 | 12 | 262 | 3.2 | 9.7 | 0.00 | 0.00 | 0.00 | 84 | 1020.6 |
| 20260501180504 | 12 | 237 | 3.2 | 4.8 | 0.00 | 0.00 | 0.00 | 83 | 1020.6 |
| 20260501180404 | 12 | 264 | 8.0 | 9.7 | 0.00 | 0.00 | 0.00 | 83 | 1020.6 |
| 20260501180234 | 12 | 259 | 8.0 | 14.5 | 0.00 | 0.00 | 0.00 | 83 | 1020.6 |
| 20260501180104 | 12 | 256 | 4.8 | 11.3 | 0.00 | 0.00 | 0.00 | 83 | 1020.6 |
| 20260501180005 | 12 | 254 | 4.8 | 8.0 | 0.00 | 0.00 | 0.00 | 83 | 1020.6 |
| 20260501175904 | 12 | 268 | 8.0 | 8.0 | 0.00 | 0.00 | 0.00 | 83 | 1020.6 |
| 20260501175804 | 12 | 266 | 4.8 | 9.7 | 0.00 | 0.00 | 0.00 | 83 | 1020.6 |
| 20260501175634 | 12 | 270 | 4.8 | 8.0 | 0.00 | 0.00 | 0.00 | 83 | 1020.6 |
| 20260501175534 | 12 | 266 | 4.8 | 9.7 | 0.00 | 0.00 | 0.00 | 83 | 1020.6 |
| 20260501175434 | 12 | 273 | 8.0 | 9.7 | 0.00 | 0.00 | 0.00 | 82 | 1020.5 |
| 20260501175334 | 12 | 280 | 9.7 | 11.3 | 0.00 | 0.00 | 0.00 | 82 | 1020.5 |
| 20260501175204 | 12 | 270 | 8.0 | 12.9 | 0.00 | 0.00 | 0.00 | 82 | 1020.6 |
| 20260501175104 | 12 | 255 | 8.0 | 8.0 | 0.00 | 0.00 | 0.00 | 82 | 1020.6 |
| 20260501174934 | 12 | 268 | 8.0 | 9.7 | 0.00 | 0.00 | 0.00 | 82 | 1020.5 |
| 20260501174834 | 12 | 276 | 4.8 | 11.3 | 0.00 | 0.00 | 0.00 | 82 | 1020.5 |
| 20260501174734 | 12 | 267 | 8.0 | 9.7 | 0.00 | 0.00 | 0.00 | 82 | 1020.5 |
| 20260501174634 | 12 | 269 | 4.8 | 9.7 | 0.00 | 0.00 | 0.00 | 82 | 1020.5 |
| 20260501174534 | 12 | 273 | 4.8 | 9.7 | 0.00 | 0.00 | 0.00 | 82 | 1020.4 |
| 20260501174404 | 12 | 269 | 8.0 | 8.0 | 0.00 | 0.00 | 0.00 | 82 | 1020.4 |
| 20260501174234 | 12 | 264 | 4.8 | 4.8 | 0.00 | 0.00 | 0.00 | 82 | 1020.5 |
| 20260501174134 | 12 | 261 | 8.0 | 11.3 | 0.00 | 0.00 | 0.00 | 81 | 1020.5 |
| 20260501174034 | 12 | 246 | 4.8 | 9.7 | 0.00 | 0.00 | 0.00 | 81 | 1020.5 |
| 20260501173904 | 12 | 267 | 8.0 | 11.3 | 0.00 | 0.00 | 0.00 | 81 | 1020.5 |
| 20260501173804 | 12 | 268 | 8.0 | 12.9 | 0.00 | 0.00 | 0.00 | 81 | 1020.5 |
| 20260501173634 | 12 | 269 | 4.8 | 11.3 | 0.00 | 0.00 | 0.00 | 81 | 1020.5 |
| 20260501173534 | 12 | 252 | 8.0 | 11.3 | 0.00 | 0.00 | 0.00 | 81 | 1020.4 |
| 20260501173404 | 12 | 257 | 4.8 | 11.3 | 0.00 | 0.00 | 0.00 | 81 | 1020.4 |
| 20260501173304 | 12 | 256 | 4.8 | 4.8 | 0.00 | 0.00 | 0.00 | 81 | 1020.4 |
| 20260501173204 | 12 | 249 | 8.0 | 9.7 | 0.00 | 0.00 | 0.00 | 80 | 1020.4 |
| 20260501173034 | 12 | 268 | 8.0 | 11.3 | 0.00 | 0.00 | 0.00 | 80 | 1020.4 |
| 20260501172904 | 13 | 272 | 4.8 | 8.0 | 0.00 | 0.00 | 0.00 | 80 | 1020.4 |
| 20260501172804 | 13 | 269 | 8.0 | 9.7 | 0.00 | 0.00 | 0.00 | 79 | 1020.4 |
| 20260501172704 | 13 | 253 | 4.8 | 11.3 | 0.00 | 0.00 | 0.00 | 80 | 1020.4 |
| 20260501172604 | 13 | 227 | 4.8 | 8.0 | 0.00 | 0.00 | 0.00 | 80 | 1020.4 |
| 20260501172434 | 13 | 212 | 4.8 | 4.8 | 0.00 | 0.00 | 0.00 | 80 | 1020.4 |
| 20260501172334 | 13 | 199 | 4.8 | 9.7 | 0.00 | 0.00 | 0.00 | 80 | 1020.4 |
| 20260501172204 | 13 | 250 | 4.8 | 8.0 | 0.00 | 0.00 | 0.00 | 80 | 1020.5 |
| 20260501172104 | 13 | 212 | 4.8 | 9.7 | 0.00 | 0.00 | 0.00 | 80 | 1020.5 |
| 20260501172004 | 13 | 230 | 4.8 | 8.0 | 0.00 | 0.00 | 0.00 | 80 | 1020.5 |
| 20260501171904 | 13 | 196 | 4.8 | 8.0 | 0.00 | 0.00 | 0.00 | 80 | 1020.5 |
| 20260501171734 | 13 | 213 | 4.8 | 11.3 | 0.00 | 0.00 | 0.00 | 80 | 1020.5 |
| 20260501171634 | 13 | 202 | 4.8 | 4.8 | 0.00 | 0.00 | 0.00 | 80 | 1020.5 |
| 20260501171534 | 13 | 217 | 4.8 | 8.0 | 0.00 | 0.00 | 0.00 | 80 | 1020.5 |
| 20260501171434 | 13 | 204 | 4.8 | 8.0 | 0.00 | 0.00 | 0.00 | 81 | 1020.5 |
| 20260501171334 | 13 | 224 | 3.2 | 4.8 | 0.00 | 0.00 | 0.00 | 81 | 1020.6 |
| 20260501171234 | 12 | 236 | 3.2 | 4.8 | 0.00 | 0.00 | 0.00 | 80 | 1020.5 |
| 20260501171134 | 12 | 257 | 4.8 | 11.3 | 0.00 | 0.00 | 0.00 | 80 | 1020.5 |
| 20260501171034 | 12 | 220 | 4.8 | 8.0 | 0.00 | 0.00 | 0.00 | 80 | 1020.6 |
| 20260501170904 | 12 | 238 | 4.8 | 8.0 | 0.00 | 0.00 | 0.00 | 80 | 1020.5 |
| 20260501170734 | 13 | 253 | 8.0 | 12.9 | 0.00 | 0.00 | 0.00 | 79 | 1020.5 |
| 20260501170634 | 13 | 226 | 4.8 | 9.7 | 0.00 | 0.00 | 0.00 | 80 | 1020.5 |
| 20260501170534 | 13 | 227 | 4.8 | 8.0 | 0.00 | 0.00 | 0.00 | 79 | 1020.5 |
| 20260501170404 | 13 | 237 | 8.0 | 8.0 | 0.00 | 0.00 | 0.00 | 79 | 1020.5 |
| 20260501170304 | 13 | 224 | 4.8 | 11.3 | 0.00 | 0.00 | 0.00 | 80 | 1020.5 |
| 20260501170134 | 13 | 216 | 8.0 | 8.0 | 0.00 | 0.00 | 0.00 | 79 | 1020.5 |
| 20260501170034 | 13 | 219 | 8.0 | 11.3 | 0.00 | 0.00 | 0.00 | 79 | 1020.5 |
| 20260501165934 | 13 | 229 | 4.8 | 11.3 | 0.00 | 0.00 | 0.00 | 80 | 1020.5 |
| 20260501165804 | 13 | 212 | 3.2 | 8.0 | 0.00 | 0.00 | 0.00 | 80 | 1020.5 |
| 20260501165704 | 13 | 232 | 4.8 | 8.0 | 0.00 | 0.00 | 0.00 | 80 | 1020.5 |
| 20260501165604 | 13 | 221 | 4.8 | 8.0 | 0.00 | 0.00 | 0.00 | 80 | 1020.5 |
| 20260501165504 | 13 | 210 | 4.8 | 9.7 | 0.00 | 0.00 | 0.00 | 80 | 1020.5 |
| 20260501165404 | 13 | 230 | 8.0 | 9.7 | 0.00 | 0.00 | 0.00 | 79 | 1020.5 |
| 20260501165234 | 13 | 240 | 4.8 | 11.3 | 0.00 | 0.00 | 0.00 | 80 | 1020.5 |
| 20260501165134 | 13 | 211 | 8.0 | 9.7 | 0.00 | 0.00 | 0.00 | 79 | 1020.5 |
| 20260501165034 | 13 | 239 | 8.0 | 11.3 | 0.00 | 0.00 | 0.00 | 79 | 1020.5 |
| 20260501164934 | 13 | 223 | 8.0 | 12.9 | 0.00 | 0.00 | 0.00 | 79 | 1020.6 |
| 20260501164834 | 13 | 229 | 8.0 | 12.9 | 0.00 | 0.00 | 0.00 | 80 | 1020.6 |
| 20260501164704 | 13 | 217 | 4.8 | 8.0 | 0.00 | 0.00 | 0.00 | 79 | 1020.6 |
| 20260501164604 | 13 | 214 | 4.8 | 9.7 | 0.00 | 0.00 | 0.00 | 80 | 1020.6 |
| 20260501164504 | 13 | 224 | 8.0 | 9.7 | 0.00 | 0.00 | 0.00 | 80 | 1020.6 |
| 20260501164334 | 13 | 242 | 8.0 | 9.7 | 0.00 | 0.00 | 0.00 | 79 | 1020.6 |
| 20260501164234 | 13 | 235 | 8.0 | 9.7 | 0.00 | 0.00 | 0.00 | 79 | 1020.6 |
| 20260501164134 | 13 | 218 | 8.0 | 12.9 | 0.00 | 0.00 | 0.00 | 79 | 1020.6 |
| 20260501164034 | 13 | 217 | 9.7 | 12.9 | 0.00 | 0.00 | 0.00 | 79 | 1020.7 |
| 20260501163934 | 13 | 237 | 8.0 | 12.9 | 0.00 | 0.00 | 0.00 | 79 | 1020.7 |
| 20260501163804 | 13 | 211 | 8.0 | 12.9 | 0.00 | 0.00 | 0.00 | 79 | 1020.7 |
| 20260501163634 | 13 | 216 | 4.8 | 8.0 | 0.00 | 0.00 | 0.00 | 80 | 1020.7 |
| 20260501163504 | 13 | 227 | 8.0 | 8.0 | 0.00 | 0.00 | 0.00 | 79 | 1020.7 |
| 20260501163334 | 13 | 213 | 8.0 | 14.5 | 0.00 | 0.00 | 0.00 | 79 | 1020.6 |
| 20260501163234 | 13 | 224 | 8.0 | 12.9 | 0.00 | 0.00 | 0.00 | 79 | 1020.6 |
| 20260501163134 | 13 | 213 | 4.8 | 9.7 | 0.00 | 0.00 | 0.00 | 80 | 1020.7 |
| 20260501163004 | 13 | 219 | 8.0 | 9.7 | 0.00 | 0.00 | 0.00 | 79 | 1020.7 |
| 20260501162904 | 13 | 248 | 8.0 | 12.9 | 0.00 | 0.00 | 0.00 | 80 | 1020.7 |
| 20260501162804 | 13 | 202 | 4.8 | 9.7 | 0.00 | 0.00 | 0.00 | 80 | 1020.7 |
| 20260501162704 | 13 | 202 | 8.0 | 9.7 | 0.00 | 0.00 | 0.00 | 80 | 1020.7 |
| 20260501162534 | 13 | 231 | 8.0 | 12.9 | 0.00 | 0.00 | 0.00 | 80 | 1020.7 |
| 20260501162404 | 13 | 194 | 8.0 | 8.0 | 0.00 | 0.00 | 0.00 | 80 | 1020.7 |
| 20260501162306 | 13 | 230 | 9.7 | 12.9 | 0.00 | 0.00 | 0.00 | 79 | 1020.7 |
| 20260501162134 | 13 | 218 | 8.0 | 8.0 | 0.00 | 0.00 | 0.00 | 80 | 1020.7 |
| 20260501162034 | 13 | 232 | 8.0 | 12.9 | 0.00 | 0.00 | 0.00 | 80 | 1020.7 |
| 20260501161934 | 13 | 208 | 9.7 | 11.3 | 0.00 | 0.00 | 0.00 | 79 | 1020.7 |
| 20260501161804 | 13 | 241 | 9.7 | 12.9 | 0.00 | 0.00 | 0.00 | 79 | 1020.7 |
| 20260501161704 | 13 | 241 | 9.7 | 14.5 | 0.00 | 0.00 | 0.00 | 80 | 1020.7 |
| 20260501161534 | 13 | 222 | 8.0 | 11.3 | 0.00 | 0.00 | 0.00 | 80 | 1020.7 |
| 20260501161434 | 13 | 217 | 8.0 | 8.0 | 0.00 | 0.00 | 0.00 | 80 | 1020.8 |